Wetterdaten: Donnerstag, 07.02.2019
Datum Zeit Temp. Aussen Temp. o. S. +5cm Feuchte Auss Luftdruck Regen Sonnenschein Regendauer Solar Windben Empfang
07.02.2019 00:00 5,8 C 5,0 C 3,9 C 93 % 1014,0 hPa 0,0 l/m 0 min 2 min 0 W/m 16,1 km/h (3 Bft) 96,30 %
07.02.2019 00:02 5,8 C 4,4 C 3,9 C 93 % 1014,0 hPa 0,0 l/m 0 min 2 min 0 W/m 3,2 km/h (1 Bft) 13,33 %
07.02.2019 00:04 5,8 C 4,4 C 3,9 C 93 % 1013,9 hPa 0,0 l/m 0 min 0 min 0 W/m 12,9 km/h (3 Bft) 72,41 %
07.02.2019 00:07 5,8 C 4,4 C 3,9 C 93 % 1013,9 hPa 0,0 l/m 0 min 3 min 0 W/m 12,9 km/h (3 Bft) 98,57 %
07.02.2019 00:08 5,8 C 4,4 C 3,9 C 93 % 1013,9 hPa 0,0 l/m 0 min 1 min 0 W/m 12,9 km/h (3 Bft) 95,83 %
07.02.2019 00:10 5,8 C 4,4 C 3,9 C 93 % 1013,9 hPa 0,0 l/m 0 min 2 min 0 W/m 12,9 km/h (3 Bft) 97,83 %
07.02.2019 00:12 5,8 C 4,4 C 3,9 C 93 % 1013,7 hPa 0,0 l/m 0 min 2 min 0 W/m 19,3 km/h (3 Bft) 95,74 %
07.02.2019 00:14 5,8 C 4,4 C 3,9 C 93 % 1013,8 hPa 0,0 l/m 0 min 2 min 0 W/m 19,3 km/h (3 Bft) 93,62 %
07.02.2019 00:16 5,8 C 4,4 C 3,9 C 93 % 1013,8 hPa 0,0 l/m 0 min 2 min 0 W/m 16,1 km/h (3 Bft) 95,74 %
07.02.2019 00:18 5,8 C 4,4 C 3,9 C 93 % 1013,8 hPa 0,0 l/m 0 min 2 min 0 W/m 22,5 km/h (4 Bft) 95,74 %
07.02.2019 00:20 5,8 C 4,4 C 3,9 C 93 % 1013,7 hPa 0,0 l/m 0 min 2 min 0 W/m 19,3 km/h (3 Bft) 97,87 %
07.02.2019 00:22 5,8 C 4,4 C 3,9 C 93 % 1013,7 hPa 0,0 l/m 0 min 2 min 0 W/m 16,1 km/h (3 Bft) 95,65 %
07.02.2019 00:24 5,8 C 4,4 C 3,9 C 93 % 1013,7 hPa 0,0 l/m 0 min 2 min 0 W/m 16,1 km/h (3 Bft) 95,74 %
07.02.2019 00:26 5,8 C 4,4 C 3,9 C 93 % 1013,6 hPa 0,0 l/m 0 min 0 min 0 W/m 16,1 km/h (3 Bft) 95,74 %
07.02.2019 00:28 5,8 C 4,4 C 3,9 C 93 % 1013,5 hPa 0,0 l/m 0 min 0 min 0 W/m 16,1 km/h (3 Bft) 95,74 %
07.02.2019 00:30 5,8 C 4,4 C 3,9 C 93 % 1013,5 hPa 0,0 l/m 0 min 2 min 0 W/m 9,7 km/h (2 Bft) 93,62 %
07.02.2019 00:32 5,8 C 4,4 C 3,9 C 93 % 1013,5 hPa 0,0 l/m 0 min 2 min 0 W/m 12,9 km/h (3 Bft) 95,65 %
07.02.2019 00:34 5,8 C 4,4 C 3,9 C 93 % 1013,4 hPa 0,0 l/m 0 min 2 min 0 W/m 12,9 km/h (3 Bft) 95,74 %
07.02.2019 00:36 5,8 C 4,4 C 3,9 C 93 % 1013,4 hPa 0,0 l/m 0 min 2 min 0 W/m 16,1 km/h (3 Bft) 97,87 %
07.02.2019 00:38 5,8 C 4,4 C 3,9 C 93 % 1013,4 hPa 0,0 l/m 0 min 2 min 0 W/m 12,9 km/h (3 Bft) 97,87 %
07.02.2019 00:40 5,8 C 4,4 C 3,9 C 93 % 1013,4 hPa 0,0 l/m 0 min 2 min 0 W/m 12,9 km/h (3 Bft) 97,87 %
07.02.2019 00:42 5,7 C 4,4 C 3,9 C 93 % 1013,4 hPa 0,0 l/m 0 min 2 min 0 W/m 22,5 km/h (4 Bft) 95,74 %
07.02.2019 00:44 5,8 C 4,4 C 3,9 C 93 % 1013,3 hPa 0,0 l/m 0 min 2 min 0 W/m 12,9 km/h (3 Bft) 95,65 %
07.02.2019 00:46 5,8 C 4,4 C 3,9 C 93 % 1013,2 hPa 0,0 l/m 0 min 2 min 0 W/m 16,1 km/h (3 Bft) 97,87 %
07.02.2019 00:48 5,8 C 4,4 C 3,9 C 93 % 1013,2 hPa 0,2 l/m 0 min 2 min 0 W/m 12,9 km/h (3 Bft) 97,87 %
07.02.2019 00:50 5,7 C 4,4 C 3,9 C 93 % 1013,1 hPa 0,0 l/m 0 min 2 min 0 W/m 19,3 km/h (3 Bft) 97,87 %
07.02.2019 00:52 5,7 C 4,4 C 3,9 C 93 % 1013,1 hPa 0,0 l/m 0 min 2 min 0 W/m 16,1 km/h (3 Bft) 95,74 %
07.02.2019 00:54 5,7 C 4,4 C 3,9 C 93 % 1013,0 hPa 0,0 l/m 0 min 2 min 0 W/m 16,1 km/h (3 Bft) 97,87 %
07.02.2019 00:56 5,7 C 4,4 C 3,9 C 93 % 1013,0 hPa 0,0 l/m 0 min 2 min 0 W/m 19,3 km/h (3 Bft) 97,83 %
07.02.2019 00:58 5,7 C 4,4 C 3,9 C 93 % 1013,0 hPa 0,2 l/m 0 min 2 min 0 W/m 16,1 km/h (3 Bft) 97,87 %
07.02.2019 01:00 5,7 C 4,4 C 3,9 C 92 % 1012,9 hPa 0,0 l/m 0 min 2 min 0 W/m 12,9 km/h (3 Bft) 97,87 %
07.02.2019 01:02 5,7 C 4,4 C 3,9 C 93 % 1012,9 hPa 0,0 l/m 0 min 2 min 0 W/m 16,1 km/h (3 Bft) 97,87 %
07.02.2019 01:04 5,7 C 4,4 C 3,9 C 92 % 1012,8 hPa 0,0 l/m 0 min 2 min 0 W/m 12,9 km/h (3 Bft) 97,87 %
07.02.2019 01:06 5,7 C 4,4 C 3,9 C 93 % 1013,0 hPa 0,0 l/m 0 min 2 min 0 W/m 9,7 km/h (2 Bft) 93,62 %
07.02.2019 01:08 5,7 C 4,4 C 3,9 C 92 % 1012,9 hPa 0,0 l/m 0 min 2 min 0 W/m 9,7 km/h (2 Bft) 97,83 %
07.02.2019 01:10 5,7 C 4,4 C 3,9 C 93 % 1012,8 hPa 0,0 l/m 0 min 2 min 0 W/m 12,9 km/h (3 Bft) 97,87 %
07.02.2019 01:12 5,6 C 4,4 C 3,9 C 93 % 1012,8 hPa 0,0 l/m 0 min 2 min 0 W/m 12,9 km/h (3 Bft) 100,00 %
07.02.2019 01:14 5,6 C 4,4 C 3,9 C 93 % 1012,7 hPa 0,0 l/m 0 min 2 min 0 W/m 12,9 km/h (3 Bft) 100,00 %
07.02.2019 01:16 5,6 C 4,4 C 3,9 C 93 % 1012,7 hPa 0,0 l/m 0 min 2 min 0 W/m 19,3 km/h (3 Bft) 100,00 %
07.02.2019 01:18 5,6 C 4,4 C 3,9 C 93 % 1012,6 hPa 0,0 l/m 0 min 2 min 0 W/m 16,1 km/h (3 Bft) 100,00 %
07.02.2019 01:20 5,6 C 4,4 C 3,9 C 93 % 1012,6 hPa 0,0 l/m 0 min 2 min 0 W/m 9,7 km/h (2 Bft) 100,00 %
07.02.2019 01:22 5,6 C 4,4 C 3,9 C 93 % 1012,5 hPa 0,0 l/m 0 min 2 min 0 W/m 12,9 km/h (3 Bft) 100,00 %
07.02.2019 01:24 5,6 C 4,4 C 3,9 C 93 % 1012,5 hPa 0,2 l/m 0 min 2 min 0 W/m 9,7 km/h (2 Bft) 100,00 %
07.02.2019 01:26 5,6 C 4,4 C 3,9 C 93 % 1012,4 hPa 0,0 l/m 0 min 2 min 0 W/m 16,1 km/h (3 Bft) 100,00 %
07.02.2019 01:28 5,6 C 3,9 C 3,9 C 93 % 1012,4 hPa 0,0 l/m 0 min 2 min 0 W/m 16,1 km/h (3 Bft) 100,00 %
07.02.2019 01:30 5,6 C 3,9 C 3,3 C 93 % 1012,3 hPa 0,0 l/m 0 min 2 min 0 W/m 16,1 km/h (3 Bft) 97,87 %
07.02.2019 01:32 5,6 C 3,9 C 3,3 C 92 % 1012,3 hPa 0,2 l/m 0 min 2 min 0 W/m 16,1 km/h (3 Bft) 100,00 %
07.02.2019 01:34 5,6 C 3,9 C 3,3 C 92 % 1012,2 hPa 0,0 l/m 0 min 2 min 0 W/m 16,1 km/h (3 Bft) 97,87 %
07.02.2019 01:36 5,6 C 3,9 C 3,3 C 92 % 1012,2 hPa 0,0 l/m 0 min 2 min 0 W/m 16,1 km/h (3 Bft) 100,00 %
07.02.2019 01:38 5,6 C 3,9 C 3,3 C 92 % 1012,2 hPa 0,0 l/m 0 min 2 min 0 W/m 12,9 km/h (3 Bft) 100,00 %
07.02.2019 01:40 5,6 C 3,9 C 3,3 C 92 % 1012,1 hPa 0,0 l/m 0 min 2 min 0 W/m 16,1 km/h (3 Bft) 100,00 %
07.02.2019 01:42 5,5 C 3,9 C 3,3 C 92 % 1012,1 hPa 0,2 l/m 0 min 2 min 0 W/m 16,1 km/h (3 Bft) 97,83 %
07.02.2019 01:44 5,5 C 3,9 C 3,3 C 92 % 1012,0 hPa 0,2 l/m 0 min 2 min 0 W/m 6,4 km/h (2 Bft) 100,00 %
07.02.2019 01:46 5,5 C 3,9 C 3,3 C 92 % 1012,0 hPa 0,0 l/m 0 min 2 min 0 W/m 19,3 km/h (3 Bft) 100,00 %
07.02.2019 01:48 5,4 C 3,9 C 3,3 C 92 % 1011,9 hPa 0,0 l/m 0 min 2 min 0 W/m 22,5 km/h (4 Bft) 97,87 %
07.02.2019 01:50 5,4 C 3,9 C 3,3 C 92 % 1011,9 hPa 0,2 l/m 0 min 2 min 0 W/m 12,9 km/h (3 Bft) 100,00 %
07.02.2019 01:52 5,4 C 3,9 C 3,3 C 92 % 1011,8 hPa 0,0 l/m 0 min 2 min 0 W/m 9,7 km/h (2 Bft) 100,00 %
07.02.2019 01:54 5,4 C 3,9 C 3,3 C 92 % 1011,8 hPa 0,2 l/m 0 min 2 min 0 W/m 12,9 km/h (3 Bft) 100,00 %
07.02.2019 01:56 5,3 C 3,3 C 3,3 C 92 % 1011,7 hPa 0,0 l/m 0 min 2 min 0 W/m 16,1 km/h (3 Bft) 97,87 %
07.02.2019 01:58 5,3 C 3,3 C 3,3 C 92 % 1011,6 hPa 0,0 l/m 0 min 2 min 0 W/m 19,3 km/h (3 Bft) 97,87 %
07.02.2019 02:00 5,3 C 3,3 C 3,3 C 92 % 1011,6 hPa 0,0 l/m 0 min 2 min 0 W/m 12,9 km/h (3 Bft) 97,87 %
07.02.2019 02:02 5,2 C 3,3 C 2,8 C 91 % 1011,6 hPa 0,0 l/m 0 min 2 min 0 W/m 19,3 km/h (3 Bft) 95,74 %
07.02.2019 02:04 5,2 C 3,3 C 2,8 C 92 % 1011,5 hPa 0,0 l/m 0 min 2 min 0 W/m 12,9 km/h (3 Bft) 97,87 %
07.02.2019 02:06 5,2 C 3,3 C 2,8 C 91 % 1011,5 hPa 0,2 l/m 0 min 2 min 0 W/m 12,9 km/h (3 Bft) 97,83 %
07.02.2019 02:08 5,1 C 3,3 C 2,8 C 91 % 1011,5 hPa 0,0 l/m 0 min 2 min 0 W/m 25,7 km/h (4 Bft) 97,87 %
07.02.2019 02:10 5,1 C 3,3 C 2,8 C 91 % 1011,4 hPa 0,0 l/m 0 min 2 min 0 W/m 19,3 km/h (3 Bft) 93,62 %
07.02.2019 02:12 5,1 C 3,3 C 2,8 C 91 % 1011,4 hPa 0,0 l/m 0 min 2 min 0 W/m 16,1 km/h (3 Bft) 97,87 %
07.02.2019 02:14 5,0 C 3,3 C 2,8 C 92 % 1011,4 hPa 0,0 l/m 0 min 2 min 0 W/m 16,1 km/h (3 Bft) 97,87 %
07.02.2019 02:16 5,0 C 3,3 C 2,8 C 92 % 1011,4 hPa 0,0 l/m 0 min 2 min 0 W/m 12,9 km/h (3 Bft) 97,87 %
07.02.2019 02:18 4,9 C 3,3 C 2,8 C 92 % 1011,4 hPa 0,0 l/m 0 min 2 min 0 W/m 19,3 km/h (3 Bft) 97,83 %
07.02.2019 02:20 4,9 C 3,3 C 2,8 C 92 % 1011,3 hPa 0,0 l/m 0 min 2 min 0 W/m 19,3 km/h (3 Bft) 97,87 %
07.02.2019 02:22 4,9 C 3,3 C 2,8 C 92 % 1011,2 hPa 0,0 l/m 0 min 2 min 0 W/m 22,5 km/h (4 Bft) 97,87 %
07.02.2019 02:24 4,9 C 3,3 C 2,8 C 92 % 1011,2 hPa 0,0 l/m 0 min 2 min 0 W/m 12,9 km/h (3 Bft) 97,87 %
07.02.2019 02:26 4,9 C 3,3 C 2,8 C 92 % 1011,2 hPa 0,2 l/m 0 min 2 min 0 W/m 16,1 km/h (3 Bft) 97,87 %
07.02.2019 02:28 4,8 C 3,3 C 2,8 C 92 % 1011,1 hPa 0,0 l/m 0 min 2 min 0 W/m 25,7 km/h (4 Bft) 97,87 %
07.02.2019 02:30 4,8 C 3,3 C 2,8 C 92 % 1011,1 hPa 0,0 l/m 0 min 2 min 0 W/m 25,7 km/h (4 Bft) 97,83 %
07.02.2019 02:32 4,8 C 3,3 C 2,8 C 92 % 1011,1 hPa 0,0 l/m 0 min 2 min 0 W/m 19,3 km/h (3 Bft) 97,87 %
07.02.2019 02:34 4,8 C 3,3 C 2,8 C 92 % 1011,1 hPa 0,0 l/m 0 min 2 min 0 W/m 22,5 km/h (4 Bft) 93,62 %
07.02.2019 02:36 4,7 C 3,3 C 2,8 C 92 % 1011,1 hPa 0,0 l/m 0 min 2 min 0 W/m 25,7 km/h (4 Bft) 93,62 %
07.02.2019 02:38 4,7 C 3,3 C 2,8 C 92 % 1011,1 hPa 0,0 l/m 0 min 2 min 0 W/m 22,5 km/h (4 Bft) 93,62 %
07.02.2019 02:40 4,7 C 3,3 C 2,8 C 92 % 1011,1 hPa 0,0 l/m 0 min 2 min 0 W/m 16,1 km/h (3 Bft) 93,48 %
07.02.2019 02:42 4,7 C 3,3 C 2,8 C 92 % 1011,0 hPa 0,0 l/m 0 min 2 min 0 W/m 19,3 km/h (3 Bft) 95,74 %
07.02.2019 02:44 4,7 C 3,3 C 2,8 C 92 % 1011,0 hPa 0,0 l/m 0 min 2 min 0 W/m 25,7 km/h (4 Bft) 89,36 %
07.02.2019 02:46 4,6 C 3,3 C 2,8 C 92 % 1011,0 hPa 0,0 l/m 0 min 2 min 0 W/m 22,5 km/h (4 Bft) 91,49 %
07.02.2019 02:48 4,6 C 3,3 C 2,8 C 92 % 1010,9 hPa 0,0 l/m 0 min 2 min 0 W/m 16,1 km/h (3 Bft) 95,74 %
07.02.2019 02:50 4,6 C 3,3 C 2,8 C 92 % 1010,9 hPa 0,0 l/m 0 min 2 min 0 W/m 22,5 km/h (4 Bft) 93,62 %
07.02.2019 02:52 4,6 C 3,3 C 2,8 C 92 % 1010,9 hPa 0,2 l/m 0 min 2 min 0 W/m 22,5 km/h (4 Bft) 95,65 %
07.02.2019 02:54 4,5 C 3,3 C 2,8 C 92 % 1010,8 hPa 0,0 l/m 0 min 2 min 0 W/m 16,1 km/h (3 Bft) 95,74 %
07.02.2019 02:56 4,5 C 3,3 C 2,8 C 92 % 1010,8 hPa 0,0 l/m 0 min 2 min 0 W/m 29,0 km/h (5 Bft) 91,49 %
07.02.2019 02:58 4,5 C 3,3 C 2,8 C 92 % 1010,7 hPa 0,0 l/m 0 min 2 min 0 W/m 25,7 km/h (4 Bft) 97,87 %
07.02.2019 03:00 4,4 C 2,8 C 2,8 C 92 % 1010,7 hPa 0,0 l/m 0 min 2 min 0 W/m 29,0 km/h (5 Bft) 95,74 %
07.02.2019 03:02 4,4 C 2,8 C 2,8 C 92 % 1010,9 hPa 0,2 l/m 0 min 2 min 0 W/m 25,7 km/h (4 Bft) 93,62 %
07.02.2019 03:04 4,4 C 2,8 C 2,8 C 92 % 1010,7 hPa 0,0 l/m 0 min 2 min 0 W/m 29,0 km/h (5 Bft) 95,65 %
07.02.2019 03:06 4,4 C 2,8 C 2,8 C 92 % 1010,7 hPa 0,0 l/m 0 min 2 min 0 W/m 25,7 km/h (4 Bft) 93,62 %
07.02.2019 03:08 4,4 C 2,8 C 2,8 C 93 % 1010,7 hPa 0,0 l/m 0 min 2 min 0 W/m 35,4 km/h (5 Bft) 95,74 %
07.02.2019 03:10 4,4 C 2,8 C 2,8 C 93 % 1010,6 hPa 0,0 l/m 0 min 2 min 0 W/m 25,7 km/h (4 Bft) 93,62 %
07.02.2019 03:12 4,3 C 2,8 C 2,8 C 92 % 1010,6 hPa 0,0 l/m 0 min 2 min 0 W/m 22,5 km/h (4 Bft) 91,49 %
07.02.2019 03:14 4,3 C 2,8 C 2,8 C 93 % 1010,5 hPa 0,0 l/m 0 min 2 min 0 W/m 25,7 km/h (4 Bft) 95,74 %
07.02.2019 03:16 4,3 C 2,8 C 2,8 C 93 % 1010,5 hPa 0,0 l/m 0 min 2 min 0 W/m 25,7 km/h (4 Bft) 95,65 %
07.02.2019 03:18 4,3 C 2,8 C 2,8 C 93 % 1010,4 hPa 0,2 l/m 0 min 2 min 0 W/m 16,1 km/h (3 Bft) 97,87 %
07.02.2019 03:20 4,3 C 2,8 C 2,2 C 93 % 1010,4 hPa 0,0 l/m 0 min 2 min 0 W/m 35,4 km/h (5 Bft) 95,74 %
07.02.2019 03:22 4,3 C 2,8 C 2,2 C 93 % 1010,3 hPa 0,0 l/m 0 min 2 min 0 W/m 22,5 km/h (4 Bft) 97,87 %
07.02.2019 03:24 4,2 C 2,8 C 2,2 C 93 % 1010,3 hPa 0,2 l/m 0 min 2 min 0 W/m 25,7 km/h (4 Bft) 95,74 %
07.02.2019 03:26 4,2 C 2,8 C 2,2 C 93 % 1010,2 hPa 0,0 l/m 0 min 2 min 0 W/m 38,6 km/h (5 Bft) 97,87 %
07.02.2019 03:28 4,2 C 2,8 C 2,2 C 93 % 1010,3 hPa 0,0 l/m 0 min 2 min 0 W/m 32,2 km/h (5 Bft) 97,83 %
07.02.2019 03:30 4,2 C 2,8 C 2,2 C 93 % 1010,2 hPa 0,0 l/m 0 min 2 min 0 W/m 29,0 km/h (5 Bft) 95,74 %
07.02.2019 03:32 4,2 C 2,8 C 2,2 C 93 % 1010,1 hPa 0,0 l/m 0 min 2 min 0 W/m 35,4 km/h (5 Bft) 91,49 %
07.02.2019 03:34 4,2 C 2,8 C 2,2 C 93 % 1010,0 hPa 0,0 l/m 0 min 2 min 0 W/m 19,3 km/h (3 Bft) 97,87 %
07.02.2019 03:36 4,1 C 2,8 C 2,2 C 93 % 1010,0 hPa 0,0 l/m 0 min 2 min 0 W/m 25,7 km/h (4 Bft) 97,87 %
07.02.2019 03:38 4,1 C 2,8 C 2,2 C 93 % 1009,9 hPa 0,0 l/m 0 min 2 min 0 W/m 19,3 km/h (3 Bft) 95,74 %
07.02.2019 03:40 4,1 C 2,8 C 2,2 C 93 % 1009,9 hPa 0,0 l/m 0 min 2 min 0 W/m 22,5 km/h (4 Bft) 100,00 %
07.02.2019 03:42 4,1 C 2,8 C 2,2 C 93 % 1009,8 hPa 0,2 l/m 0 min 2 min 0 W/m 29,0 km/h (5 Bft) 100,00 %
07.02.2019 03:44 4,1 C 2,8 C 2,2 C 93 % 1009,7 hPa 0,0 l/m 0 min 2 min 0 W/m 25,7 km/h (4 Bft) 100,00 %
07.02.2019 03:46 4,0 C 2,8 C 2,2 C 93 % 1009,7 hPa 0,0 l/m 0 min 2 min 0 W/m 35,4 km/h (5 Bft) 100,00 %
07.02.2019 03:48 4,0 C 2,8 C 2,2 C 94 % 1009,6 hPa 0,0 l/m 0 min 2 min 0 W/m 22,5 km/h (4 Bft) 97,87 %
07.02.2019 03:50 4,0 C 2,8 C 2,2 C 94 % 1009,5 hPa 0,0 l/m 0 min 2 min 0 W/m 22,5 km/h (4 Bft) 100,00 %
07.02.2019 03:52 3,9 C 2,8 C 2,2 C 94 % 1009,5 hPa 0,0 l/m 0 min 0 min 0 W/m 29,0 km/h (5 Bft) 100,00 %
07.02.2019 03:54 3,9 C 2,8 C 2,2 C 94 % 1009,4 hPa 0,0 l/m 0 min 0 min 0 W/m 25,7 km/h (4 Bft) 100,00 %
07.02.2019 03:56 3,9 C 2,8 C 2,2 C 93 % 1009,4 hPa 0,0 l/m 0 min 0 min 0 W/m 22,5 km/h (4 Bft) 97,87 %
07.02.2019 03:58 3,9 C 2,8 C 2,2 C 93 % 1009,4 hPa 0,0 l/m 0 min 0 min 0 W/m 25,7 km/h (4 Bft) 100,00 %
07.02.2019 04:00 3,9 C 2,8 C 2,2 C 93 % 1009,4 hPa 0,0 l/m 0 min 0 min 0 W/m 35,4 km/h (5 Bft) 97,87 %
07.02.2019 04:02 3,9 C 2,8 C 2,2 C 93 % 1009,4 hPa 0,0 l/m 0 min 0 min 0 W/m 25,7 km/h (4 Bft) 96,55 %
07.02.2019 04:04 3,9 C 2,8 C 2,2 C 93 % 1009,4 hPa 0,0 l/m 0 min 0 min 0 W/m 29,0 km/h (5 Bft) 95,74 %
07.02.2019 04:06 3,9 C 2,8 C 2,2 C 94 % 1009,4 hPa 0,0 l/m 0 min 0 min 0 W/m 29,0 km/h (5 Bft) 97,87 %
07.02.2019 04:08 3,9 C 2,8 C 2,2 C 94 % 1009,4 hPa 0,0 l/m 0 min 0 min 0 W/m 25,7 km/h (4 Bft) 95,74 %
07.02.2019 04:10 3,9 C 2,8 C 2,2 C 94 % 1009,3 hPa 0,0 l/m 0 min 0 min 0 W/m 22,5 km/h (4 Bft) 100,00 %
07.02.2019 04:12 3,9 C 2,8 C 2,2 C 94 % 1009,3 hPa 0,0 l/m 0 min 0 min 0 W/m 29,0 km/h (5 Bft) 97,87 %
07.02.2019 04:14 3,9 C 2,8 C 2,2 C 94 % 1009,2 hPa 0,0 l/m 0 min 0 min 0 W/m 22,5 km/h (4 Bft) 100,00 %
07.02.2019 04:16 3,9 C 2,8 C 2,2 C 94 % 1009,2 hPa 0,0 l/m 0 min 0 min 0 W/m 25,7 km/h (4 Bft) 100,00 %
07.02.2019 04:18 3,9 C 2,8 C 2,2 C 94 % 1009,1 hPa 0,0 l/m 0 min 0 min 0 W/m 22,5 km/h (4 Bft) 100,00 %
07.02.2019 04:20 3,9 C 2,8 C 2,2 C 94 % 1009,1 hPa 0,0 l/m 0 min 0 min 0 W/m 25,7 km/h (4 Bft) 100,00 %
07.02.2019 04:22 3,9 C 2,8 C 2,2 C 94 % 1009,0 hPa 0,0 l/m 0 min 0 min 0 W/m 25,7 km/h (4 Bft) 100,00 %
07.02.2019 04:24 3,9 C 2,8 C 2,2 C 94 % 1009,0 hPa 0,0 l/m 0 min 0 min 0 W/m 35,4 km/h (5 Bft) 100,00 %
07.02.2019 04:26 3,9 C 2,8 C 2,2 C 94 % 1008,9 hPa 0,0 l/m 0 min 0 min 0 W/m 16,1 km/h (3 Bft) 97,83 %
07.02.2019 04:28 3,9 C 2,8 C 2,2 C 94 % 1009,0 hPa 0,0 l/m 0 min 0 min 0 W/m 29,0 km/h (5 Bft) 97,87 %
07.02.2019 04:30 3,9 C 2,8 C 2,2 C 94 % 1009,0 hPa 0,0 l/m 0 min 0 min 0 W/m 22,5 km/h (4 Bft) 100,00 %
07.02.2019 04:32 3,9 C 2,8 C 2,2 C 94 % 1008,9 hPa 0,0 l/m 0 min 0 min 0 W/m 22,5 km/h (4 Bft) 100,00 %
07.02.2019 04:34 3,9 C 2,8 C 2,2 C 94 % 1008,9 hPa 0,0 l/m 0 min 0 min 0 W/m 25,7 km/h (4 Bft) 100,00 %
07.02.2019 04:36 3,9 C 2,8 C 2,2 C 94 % 1008,8 hPa 0,0 l/m 0 min 0 min 0 W/m 22,5 km/h (4 Bft) 100,00 %
07.02.2019 04:38 3,9 C 3,3 C 2,2 C 94 % 1008,9 hPa 0,0 l/m 0 min 2 min 0 W/m 29,0 km/h (5 Bft) 100,00 %
07.02.2019 04:40 3,9 C 2,8 C 2,2 C 94 % 1008,8 hPa 0,0 l/m 0 min 2 min 0 W/m 29,0 km/h (5 Bft) 95,74 %
07.02.2019 04:42 3,9 C 2,8 C 2,2 C 94 % 1008,8 hPa 0,0 l/m 0 min 2 min 0 W/m 25,7 km/h (4 Bft) 100,00 %
07.02.2019 04:44 3,9 C 2,8 C 2,2 C 94 % 1008,7 hPa 0,0 l/m 0 min 2 min 0 W/m 19,3 km/h (3 Bft) 100,00 %
07.02.2019 04:46 3,9 C 2,8 C 2,2 C 94 % 1008,6 hPa 0,0 l/m 0 min 2 min 0 W/m 25,7 km/h (4 Bft) 100,00 %
07.02.2019 04:48 3,9 C 2,8 C 2,2 C 94 % 1008,6 hPa 0,0 l/m 0 min 2 min 0 W/m 25,7 km/h (4 Bft) 97,87 %
07.02.2019 04:50 3,9 C 2,8 C 2,2 C 94 % 1008,6 hPa 0,0 l/m 0 min 2 min 0 W/m 25,7 km/h (4 Bft) 100,00 %
07.02.2019 04:52 3,9 C 2,8 C 2,2 C 94 % 1008,4 hPa 0,0 l/m 0 min 2 min 0 W/m 25,7 km/h (4 Bft) 95,74 %
07.02.2019 04:54 3,9 C 2,8 C 2,2 C 93 % 1008,5 hPa 0,0 l/m 0 min 0 min 0 W/m 19,3 km/h (3 Bft) 100,00 %
07.02.2019 04:56 3,9 C 2,8 C 2,2 C 93 % 1008,5 hPa 0,0 l/m 0 min 2 min 0 W/m 25,7 km/h (4 Bft) 100,00 %
07.02.2019 04:58 3,9 C 2,8 C 2,2 C 93 % 1008,4 hPa 0,0 l/m 0 min 2 min 0 W/m 35,4 km/h (5 Bft) 100,00 %
07.02.2019 05:00 3,9 C 2,8 C 2,2 C 93 % 1008,4 hPa 0,0 l/m 0 min 2 min 0 W/m 29,0 km/h (5 Bft) 100,00 %
07.02.2019 05:02 3,9 C 2,8 C 2,2 C 93 % 1008,4 hPa 0,0 l/m 0 min 2 min 0 W/m 22,5 km/h (4 Bft) 100,00 %
07.02.2019 05:04 3,9 C 2,8 C 2,2 C 94 % 1008,4 hPa 0,0 l/m 0 min 2 min 0 W/m 22,5 km/h (4 Bft) 100,00 %
07.02.2019 05:05 3,9 C 2,8 C 2,2 C 94 % 1008,4 hPa 0,0 l/m 0 min 1 min 0 W/m 22,5 km/h (4 Bft) 100,00 %
07.02.2019 05:15 3,9 C 2,8 C 2,2 C 93 % 1008,2 hPa 0,0 l/m 0 min 5 min 0 W/m 19,3 km/h (3 Bft) 100,00 %
07.02.2019 05:21 3,9 C 2,8 C 2,2 C 93 % 1008,0 hPa 0,2 l/m 0 min 5 min 0 W/m 19,3 km/h (3 Bft) 100,00 %
07.02.2019 05:22 3,9 C 2,8 C 2,2 C 93 % 1008,0 hPa 0,0 l/m 0 min 1 min 0 W/m 22,5 km/h (4 Bft) 100,00 %
07.02.2019 05:24 3,9 C 2,8 C 2,2 C 93 % 1008,0 hPa 0,0 l/m 0 min 2 min 0 W/m 25,7 km/h (4 Bft) 95,74 %
07.02.2019 05:26 3,9 C 2,8 C 2,2 C 93 % 1007,9 hPa 0,0 l/m 0 min 2 min 0 W/m 16,1 km/h (3 Bft) 93,62 %
07.02.2019 05:28 3,9 C 2,8 C 2,2 C 93 % 1007,9 hPa 0,0 l/m 0 min 2 min 0 W/m 22,5 km/h (4 Bft) 94,00 %
07.02.2019 05:30 3,9 C 2,8 C 2,2 C 93 % 1008,0 hPa 0,0 l/m 0 min 2 min 0 W/m 25,7 km/h (4 Bft) 97,22 %
07.02.2019 05:32 4,0 C 2,8 C 2,2 C 93 % 1007,9 hPa 0,0 l/m 0 min 2 min 0 W/m 22,5 km/h (4 Bft) 93,62 %
07.02.2019 05:34 3,9 C 2,8 C 2,2 C 93 % 1007,9 hPa 0,0 l/m 0 min 0 min 0 W/m 16,1 km/h (3 Bft) 91,49 %
07.02.2019 05:36 4,0 C 3,3 C 2,2 C 93 % 1007,9 hPa 0,0 l/m 0 min 2 min 0 W/m 19,3 km/h (3 Bft) 93,62 %
07.02.2019 05:38 4,0 C 3,3 C 2,2 C 93 % 1007,9 hPa 0,0 l/m 0 min 2 min 0 W/m 16,1 km/h (3 Bft) 93,62 %
07.02.2019 05:40 4,0 C 3,3 C 2,2 C 93 % 1007,8 hPa 0,0 l/m 0 min 0 min 0 W/m 19,3 km/h (3 Bft) 93,62 %
07.02.2019 05:42 4,0 C 3,3 C 2,2 C 93 % 1007,8 hPa 0,0 l/m 0 min 0 min 0 W/m 29,0 km/h (5 Bft) 94,44 %
07.02.2019 05:44 4,1 C 3,3 C 2,2 C 93 % 1007,8 hPa 0,0 l/m 0 min 2 min 0 W/m 29,0 km/h (5 Bft) 95,65 %
07.02.2019 05:46 4,1 C 3,3 C 2,2 C 93 % 1007,8 hPa 0,0 l/m 0 min 0 min 0 W/m 16,1 km/h (3 Bft) 93,62 %
07.02.2019 05:48 4,1 C 3,3 C 2,2 C 93 % 1007,7 hPa 0,0 l/m 0 min 2 min 0 W/m 12,9 km/h (3 Bft) 88,00 %
07.02.2019 05:50 4,1 C 3,3 C 2,2 C 93 % 1007,6 hPa 0,0 l/m 0 min 2 min 0 W/m 25,7 km/h (4 Bft) 93,62 %
07.02.2019 05:52 4,1 C 3,3 C 2,2 C 93 % 1007,6 hPa 0,0 l/m 0 min 2 min 0 W/m 32,2 km/h (5 Bft) 94,59 %
07.02.2019 05:54 4,2 C 3,3 C 2,2 C 93 % 1007,5 hPa 0,0 l/m 0 min 2 min 0 W/m 19,3 km/h (3 Bft) 93,48 %
07.02.2019 05:56 4,2 C 3,3 C 2,8 C 93 % 1007,5 hPa 0,0 l/m 0 min 0 min 0 W/m 22,5 km/h (4 Bft) 91,49 %
07.02.2019 05:58 4,2 C 3,3 C 2,2 C 93 % 1007,5 hPa 0,0 l/m 0 min 2 min 0 W/m 19,3 km/h (3 Bft) 95,74 %
07.02.2019 06:00 4,2 C 3,3 C 2,8 C 93 % 1007,5 hPa 0,0 l/m 0 min 2 min 0 W/m 25,7 km/h (4 Bft) 95,74 %
07.02.2019 06:02 4,2 C 3,3 C 2,8 C 93 % 1007,5 hPa 0,0 l/m 0 min 2 min 0 W/m 22,5 km/h (4 Bft) 93,62 %
07.02.2019 06:04 4,2 C 3,3 C 2,8 C 92 % 1007,4 hPa 0,0 l/m 0 min 2 min 0 W/m 29,0 km/h (5 Bft) 95,74 %
07.02.2019 06:07 4,2 C 3,3 C 2,8 C 92 % 1007,3 hPa 0,0 l/m 0 min 3 min 0 W/m 29,0 km/h (5 Bft) 95,74 %
07.02.2019 06:08 4,2 C 3,3 C 2,8 C 92 % 1007,3 hPa 0,0 l/m 0 min 1 min 0 W/m 29,0 km/h (5 Bft) 95,74 %
07.02.2019 06:10 4,2 C 3,3 C 2,8 C 92 % 1007,4 hPa 0,0 l/m 0 min 2 min 0 W/m 29,0 km/h (5 Bft) 95,74 %
07.02.2019 06:12 4,2 C 3,3 C 2,8 C 92 % 1007,3 hPa 0,0 l/m 0 min 2 min 0 W/m 29,0 km/h (5 Bft) 95,74 %
07.02.2019 06:14 4,2 C 3,3 C 2,8 C 92 % 1007,3 hPa 0,0 l/m 0 min 2 min 0 W/m 29,0 km/h (5 Bft) 95,30 %
07.02.2019 06:16 4,2 C 3,3 C 2,8 C 92 % 1007,2 hPa 0,0 l/m 0 min 2 min 0 W/m 29,0 km/h (5 Bft) 95,74 %
07.02.2019 06:18 4,3 C 3,3 C 2,8 C 92 % 1007,2 hPa 0,0 l/m 0 min 2 min 0 W/m 29,0 km/h (5 Bft) 95,65 %
07.02.2019 06:20 4,3 C 3,3 C 2,8 C 92 % 1007,1 hPa 0,0 l/m 0 min 2 min 0 W/m 22,5 km/h (4 Bft) 97,87 %
07.02.2019 06:22 4,3 C 3,3 C 2,8 C 92 % 1007,1 hPa 0,0 l/m 0 min 0 min 0 W/m 16,1 km/h (3 Bft) 97,87 %
07.02.2019 06:24 4,3 C 3,3 C 2,8 C 92 % 1007,1 hPa 0,0 l/m 0 min 2 min 0 W/m 19,3 km/h (3 Bft) 95,74 %
07.02.2019 06:26 4,3 C 3,3 C 2,8 C 92 % 1007,1 hPa 0,0 l/m 0 min 2 min 0 W/m 9,7 km/h (2 Bft) 97,87 %
07.02.2019 06:28 4,3 C 3,3 C 2,8 C 92 % 1007,1 hPa 0,0 l/m 0 min 2 min 0 W/m 19,3 km/h (3 Bft) 97,83 %
07.02.2019 06:30 4,3 C 3,3 C 2,8 C 92 % 1007,1 hPa 0,0 l/m 0 min 2 min 0 W/m 29,0 km/h (5 Bft) 97,87 %
07.02.2019 06:32 4,4 C 3,3 C 2,8 C 92 % 1007,0 hPa 0,0 l/m 0 min 2 min 0 W/m 16,1 km/h (3 Bft) 100,00 %
07.02.2019 06:34 4,4 C 3,3 C 2,8 C 92 % 1007,0 hPa 0,0 l/m 0 min 2 min 0 W/m 22,5 km/h (4 Bft) 100,00 %
07.02.2019 06:36 4,4 C 3,3 C 2,8 C 92 % 1006,9 hPa 0,0 l/m 0 min 2 min 0 W/m 25,7 km/h (4 Bft) 93,62 %
07.02.2019 06:38 4,4 C 3,3 C 2,8 C 92 % 1006,9 hPa 0,0 l/m 0 min 2 min 0 W/m 25,7 km/h (4 Bft) 100,00 %
07.02.2019 06:40 4,4 C 3,3 C 2,8 C 92 % 1006,8 hPa 0,0 l/m 0 min 2 min 0 W/m 25,7 km/h (4 Bft) 100,00 %
07.02.2019 06:42 4,4 C 3,3 C 2,8 C 92 % 1006,7 hPa 0,0 l/m 0 min 2 min 0 W/m 22,5 km/h (4 Bft) 100,00 %
07.02.2019 06:44 4,5 C 3,3 C 3,3 C 92 % 1006,7 hPa 0,0 l/m 0 min 2 min 0 W/m 29,0 km/h (5 Bft) 100,00 %
07.02.2019 06:46 4,5 C 3,3 C 3,3 C 92 % 1006,7 hPa 0,0 l/m 0 min 2 min 0 W/m 22,5 km/h (4 Bft) 95,92 %
07.02.2019 06:48 4,5 C 3,3 C 3,3 C 92 % 1006,7 hPa 0,0 l/m 0 min 0 min 0 W/m 25,7 km/h (4 Bft) 100,00 %
07.02.2019 06:50 4,6 C 3,3 C 3,3 C 92 % 1006,7 hPa 0,0 l/m 0 min 2 min 0 W/m 29,0 km/h (5 Bft) 100,00 %
07.02.2019 06:52 4,6 C 3,3 C 3,3 C 92 % 1006,6 hPa 0,0 l/m 0 min 2 min 0 W/m 19,3 km/h (3 Bft) 100,00 %
07.02.2019 06:54 4,6 C 3,3 C 3,3 C 92 % 1006,5 hPa 0,0 l/m 0 min 0 min 0 W/m 25,7 km/h (4 Bft) 97,96 %
07.02.2019 06:56 4,6 C 3,3 C 3,3 C 92 % 1006,5 hPa 0,0 l/m 0 min 2 min 0 W/m 25,7 km/h (4 Bft) 97,87 %
07.02.2019 06:58 4,6 C 3,9 C 3,3 C 92 % 1006,4 hPa 0,0 l/m 0 min 0 min 0 W/m 25,7 km/h (4 Bft) 100,00 %
07.02.2019 07:00 4,6 C 3,9 C 3,3 C 92 % 1006,4 hPa 0,0 l/m 0 min 0 min 0 W/m 25,7 km/h (4 Bft) 100,00 %
07.02.2019 07:02 4,7 C 3,9 C 3,3 C 92 % 1006,4 hPa 0,0 l/m 0 min 0 min 0 W/m 25,7 km/h (4 Bft) 97,37 %
07.02.2019 07:04 4,7 C 3,9 C 3,3 C 92 % 1006,4 hPa 0,0 l/m 0 min 0 min 0 W/m 25,7 km/h (4 Bft) 100,00 %
07.02.2019 07:08 4,7 C 3,9 C 3,3 C 92 % 1006,4 hPa 0,0 l/m 0 min 0 min 0 W/m 32,2 km/h (5 Bft) 100,00 %
07.02.2019 07:10 4,7 C 3,9 C 3,3 C 92 % 1006,3 hPa 0,0 l/m 0 min 0 min 0 W/m 25,7 km/h (4 Bft) 100,00 %
07.02.2019 07:12 4,7 C 3,9 C 3,3 C 92 % 1006,4 hPa 0,0 l/m 0 min 0 min 0 W/m 25,7 km/h (4 Bft) 100,00 %
07.02.2019 07:14 4,7 C 3,9 C 3,3 C 92 % 1006,3 hPa 0,0 l/m 0 min 0 min 0 W/m 22,5 km/h (4 Bft) 100,00 %
07.02.2019 07:16 4,8 C 3,9 C 3,3 C 92 % 1006,3 hPa 0,0 l/m 0 min 0 min 0 W/m 25,7 km/h (4 Bft) 100,00 %
07.02.2019 07:18 4,8 C 3,9 C 3,9 C 92 % 1006,3 hPa 0,0 l/m 0 min 0 min 0 W/m 29,0 km/h (5 Bft) 100,00 %
07.02.2019 07:20 4,8 C 3,9 C 3,9 C 92 % 1006,3 hPa 0,0 l/m 0 min 0 min 0 W/m 25,7 km/h (4 Bft) 100,00 %
07.02.2019 07:22 4,8 C 3,9 C 3,3 C 92 % 1006,3 hPa 0,0 l/m 0 min 0 min 0 W/m 22,5 km/h (4 Bft) 100,00 %
07.02.2019 07:24 4,8 C 3,9 C 3,9 C 92 % 1006,3 hPa 0,0 l/m 0 min 0 min 0 W/m 22,5 km/h (4 Bft) 100,00 %
07.02.2019 07:26 4,8 C 3,9 C 3,9 C 92 % 1006,3 hPa 0,0 l/m 0 min 0 min 0 W/m 29,0 km/h (5 Bft) 100,00 %
07.02.2019 07:28 4,9 C 3,9 C 3,9 C 92 % 1006,3 hPa 0,0 l/m 0 min 0 min 0 W/m 16,1 km/h (3 Bft) 97,87 %
07.02.2019 07:30 4,9 C 3,9 C 3,9 C 92 % 1006,3 hPa 0,0 l/m 0 min 0 min 0 W/m 25,7 km/h (4 Bft) 100,00 %
07.02.2019 07:32 4,9 C 3,9 C 3,3 C 92 % 1006,3 hPa 0,0 l/m 0 min 0 min 0 W/m 22,5 km/h (4 Bft) 100,00 %
07.02.2019 07:34 4,9 C 3,9 C 3,3 C 92 % 1006,3 hPa 0,0 l/m 0 min 0 min 0 W/m 19,3 km/h (3 Bft) 100,00 %
07.02.2019 07:36 4,9 C 3,9 C 3,3 C 92 % 1006,3 hPa 0,0 l/m 0 min 0 min 0 W/m 22,5 km/h (4 Bft) 100,00 %
07.02.2019 07:38 4,9 C 3,9 C 3,3 C 92 % 1006,3 hPa 0,0 l/m 0 min 0 min 0 W/m 19,3 km/h (3 Bft) 100,00 %
07.02.2019 07:40 5,0 C 3,9 C 3,3 C 92 % 1006,3 hPa 0,0 l/m 0 min 2 min 0 W/m 25,7 km/h (4 Bft) 100,00 %
07.02.2019 07:42 5,0 C 3,9 C 3,3 C 92 % 1006,2 hPa 0,0 l/m 0 min 2 min 0 W/m 25,7 km/h (4 Bft) 100,00 %
07.02.2019 07:44 5,0 C 3,9 C 3,3 C 92 % 1006,1 hPa 0,0 l/m 0 min 2 min 0 W/m 22,5 km/h (4 Bft) 97,87 %
07.02.2019 07:46 5,0 C 3,9 C 3,3 C 92 % 1006,2 hPa 0,0 l/m 0 min 2 min 0 W/m 22,5 km/h (4 Bft) 100,00 %
07.02.2019 07:48 5,0 C 3,9 C 3,3 C 92 % 1006,2 hPa 0,0 l/m 0 min 2 min 0 W/m 16,1 km/h (3 Bft) 97,87 %
07.02.2019 07:50 5,0 C 3,9 C 3,3 C 92 % 1006,1 hPa 0,2 l/m 0 min 2 min 0 W/m 22,5 km/h (4 Bft) 95,74 %
07.02.2019 07:52 5,0 C 3,9 C 3,3 C 92 % 1006,2 hPa 0,0 l/m 0 min 2 min 0 W/m 25,7 km/h (4 Bft) 95,74 %
07.02.2019 07:54 5,0 C 3,9 C 3,3 C 92 % 1006,1 hPa 0,2 l/m 0 min 2 min 0 W/m 22,5 km/h (4 Bft) 95,74 %
07.02.2019 07:56 5,0 C 3,9 C 3,3 C 92 % 1006,1 hPa 0,0 l/m 0 min 2 min 0 W/m 22,5 km/h (4 Bft) 93,48 %
07.02.2019 07:58 5,0 C 3,9 C 3,3 C 93 % 1006,1 hPa 0,0 l/m 0 min 2 min 0 W/m 19,3 km/h (3 Bft) 97,87 %
07.02.2019 08:00 5,0 C 3,9 C 3,3 C 93 % 1006,2 hPa 0,2 l/m 0 min 2 min 0 W/m 16,1 km/h (3 Bft) 97,87 %
07.02.2019 08:02 5,0 C 3,9 C 3,3 C 93 % 1006,1 hPa 0,0 l/m 0 min 2 min 0 W/m 16,1 km/h (3 Bft) 97,87 %
07.02.2019 08:04 5,0 C 3,9 C 3,3 C 93 % 1006,0 hPa 0,0 l/m 0 min 2 min 0 W/m 19,3 km/h (3 Bft) 95,74 %
07.02.2019 08:06 5,0 C 3,9 C 3,3 C 93 % 1006,2 hPa 0,0 l/m 0 min 0 min 0 W/m 16,1 km/h (3 Bft) 93,10 %
07.02.2019 08:08 4,9 C 3,9 C 3,3 C 93 % 1006,3 hPa 0,0 l/m 0 min 0 min 0 W/m 9,7 km/h (2 Bft) 97,22 %
07.02.2019 08:10 4,9 C 3,9 C 3,3 C 93 % 1006,1 hPa 0,0 l/m 0 min 0 min 0 W/m 19,3 km/h (3 Bft) 97,87 %
07.02.2019 08:12 4,9 C 3,9 C 3,3 C 93 % 1006,1 hPa 0,0 l/m 0 min 0 min 0 W/m 16,1 km/h (3 Bft) 95,65 %
07.02.2019 08:14 5,0 C 3,9 C 3,3 C 93 % 1006,1 hPa 0,0 l/m 0 min 0 min 4 W/m 16,1 km/h (3 Bft) 95,74 %
07.02.2019 08:16 5,0 C 3,9 C 3,3 C 94 % 1006,0 hPa 0,0 l/m 0 min 0 min 0 W/m 9,7 km/h (2 Bft) 95,74 %
07.02.2019 08:18 5,0 C 3,9 C 3,3 C 94 % 1006,1 hPa 0,0 l/m 0 min 0 min 0 W/m 12,9 km/h (3 Bft) 95,74 %
07.02.2019 08:20 5,0 C 3,9 C 3,3 C 94 % 1006,0 hPa 0,0 l/m 0 min 0 min 0 W/m 16,1 km/h (3 Bft) 95,74 %
07.02.2019 08:22 5,0 C 3,9 C 3,3 C 94 % 1006,0 hPa 0,0 l/m 0 min 0 min 4 W/m 16,1 km/h (3 Bft) 95,74 %
07.02.2019 08:24 5,0 C 4,4 C 3,3 C 94 % 1006,1 hPa 0,0 l/m 0 min 0 min 5 W/m 16,1 km/h (3 Bft) 95,65 %
07.02.2019 08:26 5,1 C 4,4 C 3,3 C 94 % 1006,0 hPa 0,0 l/m 0 min 0 min 5 W/m 25,7 km/h (4 Bft) 93,62 %
07.02.2019 08:28 5,1 C 4,4 C 3,3 C 94 % 1006,1 hPa 0,0 l/m 0 min 0 min 5 W/m 12,9 km/h (3 Bft) 95,74 %
07.02.2019 08:30 5,1 C 4,4 C 3,9 C 94 % 1006,1 hPa 0,0 l/m 0 min 0 min 6 W/m 22,5 km/h (4 Bft) 95,74 %
07.02.2019 08:32 5,1 C 4,4 C 3,9 C 95 % 1006,1 hPa 0,0 l/m 0 min 0 min 9 W/m 12,9 km/h (3 Bft) 97,87 %
07.02.2019 08:34 5,1 C 4,4 C 3,9 C 95 % 1006,0 hPa 0,0 l/m 0 min 0 min 8 W/m 12,9 km/h (3 Bft) 97,83 %
07.02.2019 08:36 5,1 C 4,4 C 3,9 C 95 % 1006,1 hPa 0,0 l/m 0 min 0 min 8 W/m 9,7 km/h (2 Bft) 97,87 %
07.02.2019 08:38 5,2 C 4,4 C 3,9 C 95 % 1006,1 hPa 0,0 l/m 0 min 0 min 5 W/m 9,7 km/h (2 Bft) 95,74 %
07.02.2019 08:40 5,2 C 4,4 C 3,9 C 95 % 1006,1 hPa 0,0 l/m 0 min 0 min 7 W/m 9,7 km/h (2 Bft) 95,74 %
07.02.2019 08:42 5,2 C 4,4 C 3,9 C 95 % 1006,0 hPa 0,0 l/m 0 min 0 min 8 W/m 6,4 km/h (2 Bft) 97,87 %
07.02.2019 08:44 5,2 C 4,4 C 3,9 C 95 % 1006,0 hPa 0,0 l/m 0 min 0 min 7 W/m 9,7 km/h (2 Bft) 97,87 %
07.02.2019 08:46 5,3 C 5,0 C 3,9 C 95 % 1006,0 hPa 0,0 l/m 0 min 0 min 6 W/m 9,7 km/h (2 Bft) 97,83 %
07.02.2019 08:48 5,3 C 5,0 C 4,4 C 95 % 1006,1 hPa 0,0 l/m 0 min 0 min 7 W/m 12,9 km/h (3 Bft) 95,74 %
07.02.2019 08:50 5,4 C 5,0 C 4,4 C 95 % 1006,1 hPa 0,0 l/m 0 min 0 min 7 W/m 9,7 km/h (2 Bft) 95,74 %
07.02.2019 08:52 5,4 C 5,0 C 4,4 C 95 % 1006,1 hPa 0,0 l/m 0 min 0 min 8 W/m 9,7 km/h (2 Bft) 95,74 %
07.02.2019 08:54 5,4 C 5,0 C 4,4 C 95 % 1006,1 hPa 0,0 l/m 0 min 0 min 9 W/m 9,7 km/h (2 Bft) 93,62 %
07.02.2019 08:56 5,5 C 5,6 C 4,4 C 96 % 1006,1 hPa 0,0 l/m 0 min 0 min 7 W/m 9,7 km/h (2 Bft) 95,74 %
07.02.2019 08:58 5,6 C 5,6 C 5,0 C 96 % 1006,2 hPa 0,0 l/m 0 min 0 min 7 W/m 9,7 km/h (2 Bft) 95,65 %
07.02.2019 09:00 5,7 C 6,1 C 5,0 C 96 % 1006,1 hPa 0,0 l/m 0 min 0 min 9 W/m 12,9 km/h (3 Bft) 97,87 %
07.02.2019 09:02 5,8 C 6,1 C 5,0 C 96 % 1006,1 hPa 0,0 l/m 0 min 2 min 10 W/m 9,7 km/h (2 Bft) 97,87 %
07.02.2019 09:04 6,0 C 6,1 C 5,6 C 96 % 1006,3 hPa 0,0 l/m 0 min 2 min 9 W/m 19,3 km/h (3 Bft) 97,87 %
07.02.2019 09:06 6,2 C 6,1 C 5,6 C 96 % 1006,3 hPa 0,0 l/m 0 min 0 min 11 W/m 12,9 km/h (3 Bft) 97,87 %
07.02.2019 09:08 6,3 C 6,1 C 5,6 C 96 % 1006,3 hPa 0,0 l/m 0 min 0 min 11 W/m 6,4 km/h (2 Bft) 97,87 %
07.02.2019 09:10 6,4 C 6,1 C 5,6 C 96 % 1006,3 hPa 0,0 l/m 0 min 0 min 14 W/m 9,7 km/h (2 Bft) 95,65 %
07.02.2019 09:12 6,5 C 6,7 C 5,6 C 97 % 1006,4 hPa 0,0 l/m 0 min 0 min 16 W/m 19,3 km/h (3 Bft) 97,87 %
07.02.2019 09:14 6,6 C 6,7 C 5,6 C 97 % 1006,4 hPa 0,0 l/m 0 min 0 min 15 W/m 35,4 km/h (5 Bft) 97,87 %
07.02.2019 09:16 6,8 C 6,7 C 6,1 C 97 % 1006,4 hPa 0,0 l/m 0 min 0 min 13 W/m 25,7 km/h (4 Bft) 97,87 %
07.02.2019 09:18 7,1 C 7,2 C 6,1 C 97 % 1006,4 hPa 0,0 l/m 0 min 0 min 8 W/m 41,8 km/h (6 Bft) 95,74 %
07.02.2019 09:20 7,2 C 7,2 C 6,1 C 97 % 1006,5 hPa 0,0 l/m 0 min 0 min 8 W/m 22,5 km/h (4 Bft) 97,87 %
07.02.2019 09:22 7,4 C 7,2 C 6,7 C 97 % 1006,5 hPa 0,0 l/m 0 min 0 min 11 W/m 35,4 km/h (5 Bft) 97,83 %
07.02.2019 09:24 7,6 C 7,2 C 6,7 C 97 % 1006,5 hPa 0,0 l/m 0 min 2 min 21 W/m 38,6 km/h (5 Bft) 97,87 %
07.02.2019 09:26 7,7 C 7,2 C 6,7 C 97 % 1006,5 hPa 0,0 l/m 0 min 2 min 31 W/m 29,0 km/h (5 Bft) 97,87 %
07.02.2019 09:28 7,8 C 7,2 C 6,7 C 97 % 1006,6 hPa 0,0 l/m 0 min 2 min 32 W/m 25,7 km/h (4 Bft) 97,87 %
07.02.2019 09:30 7,8 C 7,2 C 6,7 C 97 % 1006,6 hPa 0,0 l/m 0 min 2 min 33 W/m 22,5 km/h (4 Bft) 97,87 %
07.02.2019 09:32 7,9 C 7,2 C 6,7 C 97 % 1006,6 hPa 0,0 l/m 0 min 2 min 34 W/m 22,5 km/h (4 Bft) 97,87 %
07.02.2019 09:34 7,9 C 7,2 C 6,7 C 97 % 1006,6 hPa 0,0 l/m 0 min 0 min 35 W/m 25,7 km/h (4 Bft) 97,83 %
07.02.2019 09:36 7,9 C 7,2 C 6,7 C 97 % 1006,7 hPa 0,0 l/m 0 min 0 min 32 W/m 22,5 km/h (4 Bft) 97,87 %
07.02.2019 09:38 8,0 C 7,2 C 6,7 C 97 % 1006,8 hPa 0,0 l/m 0 min 0 min 28 W/m 22,5 km/h (4 Bft) 97,87 %
07.02.2019 09:40 8,0 C 7,2 C 6,7 C 97 % 1006,8 hPa 0,0 l/m 0 min 2 min 37 W/m 22,5 km/h (4 Bft) 97,87 %
07.02.2019 09:42 8,0 C 7,2 C 6,7 C 97 % 1006,8 hPa 0,0 l/m 0 min 0 min 54 W/m 19,3 km/h (3 Bft) 97,87 %
07.02.2019 09:44 8,1 C 7,2 C 6,7 C 97 % 1006,8 hPa 0,0 l/m 0 min 0 min 72 W/m 22,5 km/h (4 Bft) 100,00 %
07.02.2019 09:46 8,1 C 7,2 C 6,7 C 96 % 1006,8 hPa 0,0 l/m 0 min 0 min 72 W/m 12,9 km/h (3 Bft) 100,00 %
07.02.2019 09:48 8,1 C 7,2 C 6,7 C 96 % 1006,7 hPa 0,0 l/m 0 min 0 min 59 W/m 19,3 km/h (3 Bft) 100,00 %
07.02.2019 09:50 8,1 C 7,2 C 6,7 C 96 % 1006,7 hPa 0,0 l/m 0 min 0 min 56 W/m 29,0 km/h (5 Bft) 97,87 %
07.02.2019 09:52 8,1 C 7,2 C 6,7 C 96 % 1006,8 hPa 0,0 l/m 0 min 0 min 68 W/m 29,0 km/h (5 Bft) 97,87 %
07.02.2019 09:54 8,1 C 7,2 C 6,7 C 96 % 1006,9 hPa 0,0 l/m 0 min 0 min 74 W/m 22,5 km/h (4 Bft) 100,00 %
07.02.2019 09:56 8,1 C 7,2 C 6,7 C 95 % 1006,8 hPa 0,0 l/m 0 min 0 min 90 W/m 38,6 km/h (5 Bft) 100,00 %
07.02.2019 09:58 8,1 C 7,2 C 6,7 C 95 % 1006,9 hPa 0,0 l/m 0 min 0 min 100 W/m 25,7 km/h (4 Bft) 100,00 %
07.02.2019 10:00 8,1 C 7,2 C 6,7 C 95 % 1006,8 hPa 0,0 l/m 0 min 0 min 91 W/m 25,7 km/h (4 Bft) 97,87 %
07.02.2019 10:02 8,1 C 7,2 C 6,7 C 94 % 1006,9 hPa 0,0 l/m 0 min 0 min 87 W/m 19,3 km/h (3 Bft) 97,87 %
07.02.2019 10:04 8,1 C 7,2 C 6,7 C 93 % 1007,0 hPa 0,0 l/m 0 min 0 min 79 W/m 19,3 km/h (3 Bft) 100,00 %
07.02.2019 10:06 8,1 C 7,2 C 6,1 C 92 % 1007,0 hPa 0,0 l/m 0 min 0 min 76 W/m 32,2 km/h (5 Bft) 100,00 %
07.02.2019 10:08 8,1 C 7,2 C 6,1 C 91 % 1007,0 hPa 0,0 l/m 0 min 0 min 74 W/m 25,7 km/h (4 Bft) 100,00 %
07.02.2019 10:10 8,1 C 7,2 C 6,1 C 90 % 1006,9 hPa 0,0 l/m 0 min 0 min 79 W/m 29,0 km/h (5 Bft) 100,00 %
07.02.2019 10:12 8,1 C 7,2 C 6,1 C 89 % 1006,9 hPa 0,0 l/m 0 min 0 min 92 W/m 16,1 km/h (3 Bft) 100,00 %
07.02.2019 10:14 8,1 C 7,2 C 6,1 C 88 % 1007,0 hPa 0,0 l/m 0 min 0 min 102 W/m 19,3 km/h (3 Bft) 100,00 %
07.02.2019 10:16 8,1 C 7,2 C 6,1 C 87 % 1006,9 hPa 0,0 l/m 0 min 0 min 111 W/m 16,1 km/h (3 Bft) 100,00 %
07.02.2019 10:18 8,1 C 7,2 C 6,1 C 87 % 1006,9 hPa 0,0 l/m 0 min 0 min 114 W/m 16,1 km/h (3 Bft) 97,87 %
07.02.2019 10:20 8,1 C 8,3 C 6,1 C 86 % 1007,0 hPa 0,0 l/m 0 min 0 min 135 W/m 16,1 km/h (3 Bft) 97,83 %
07.02.2019 10:22 8,2 C 8,3 C 6,1 C 86 % 1007,0 hPa 0,0 l/m 2 min 0 min 151 W/m 16,1 km/h (3 Bft) 97,87 %
07.02.2019 10:24 8,2 C 7,8 C 6,1 C 86 % 1006,9 hPa 0,0 l/m 0 min 0 min 116 W/m 19,3 km/h (3 Bft) 97,87 %
07.02.2019 10:26 8,2 C 8,3 C 6,1 C 86 % 1007,0 hPa 0,0 l/m 2 min 0 min 147 W/m 6,4 km/h (2 Bft) 95,74 %
07.02.2019 10:28 8,2 C 9,4 C 6,7 C 86 % 1006,9 hPa 0,0 l/m 2 min 0 min 164 W/m 6,4 km/h (2 Bft) 95,74 %
07.02.2019 10:30 8,3 C 8,3 C 6,1 C 86 % 1007,0 hPa 0,0 l/m 0 min 0 min 117 W/m 16,1 km/h (3 Bft) 97,87 %
07.02.2019 10:32 8,3 C 8,3 C 6,1 C 85 % 1007,0 hPa 0,0 l/m 0 min 0 min 130 W/m 22,5 km/h (4 Bft) 97,83 %
07.02.2019 10:34 8,3 C 8,9 C 6,1 C 85 % 1007,1 hPa 0,0 l/m 0 min 0 min 100 W/m 22,5 km/h (4 Bft) 97,87 %
07.02.2019 10:36 8,4 C 10,0 C 6,7 C 85 % 1007,1 hPa 0,0 l/m 2 min 0 min 158 W/m 12,9 km/h (3 Bft) 98,11 %
07.02.2019 10:38 8,4 C 10,6 C 6,7 C 84 % 1007,1 hPa 0,0 l/m 2 min 0 min 230 W/m 19,3 km/h (3 Bft) 97,56 %
07.02.2019 10:40 8,4 C 11,1 C 6,7 C 84 % 1007,1 hPa 0,0 l/m 2 min 0 min 294 W/m 19,3 km/h (3 Bft) 97,87 %
07.02.2019 10:42 8,5 C 11,7 C 6,7 C 84 % 1007,1 hPa 0,0 l/m 2 min 0 min 273 W/m 16,1 km/h (3 Bft) 97,87 %
07.02.2019 10:44 8,6 C 11,1 C 6,7 C 84 % 1007,2 hPa 0,0 l/m 2 min 0 min 269 W/m 22,5 km/h (4 Bft) 93,48 %
07.02.2019 10:46 8,6 C 11,1 C 6,7 C 84 % 1007,3 hPa 0,0 l/m 2 min 0 min 312 W/m 19,3 km/h (3 Bft) 97,87 %
07.02.2019 10:48 8,7 C 11,7 C 6,7 C 83 % 1007,3 hPa 0,0 l/m 2 min 0 min 310 W/m 16,1 km/h (3 Bft) 95,74 %
07.02.2019 10:50 8,7 C 11,7 C 6,7 C 83 % 1007,3 hPa 0,0 l/m 2 min 0 min 318 W/m 16,1 km/h (3 Bft) 95,74 %
07.02.2019 10:52 8,7 C 11,7 C 6,7 C 83 % 1007,4 hPa 0,0 l/m 2 min 0 min 323 W/m 9,7 km/h (2 Bft) 95,74 %
07.02.2019 10:54 8,8 C 12,2 C 6,7 C 83 % 1007,4 hPa 0,0 l/m 2 min 0 min 348 W/m 19,3 km/h (3 Bft) 97,87 %
07.02.2019 10:56 8,9 C 12,2 C 7,2 C 83 % 1007,3 hPa 0,0 l/m 2 min 0 min 356 W/m 22,5 km/h (4 Bft) 95,65 %
07.02.2019 10:58 8,9 C 11,7 C 7,2 C 83 % 1007,3 hPa 0,0 l/m 2 min 0 min 363 W/m 12,9 km/h (3 Bft) 97,87 %
07.02.2019 11:00 8,9 C 10,6 C 7,2 C 83 % 1007,3 hPa 0,0 l/m 2 min 0 min 328 W/m 32,2 km/h (5 Bft) 97,87 %
07.02.2019 11:02 8,9 C 10,0 C 7,2 C 83 % 1007,3 hPa 0,0 l/m 2 min 0 min 182 W/m 19,3 km/h (3 Bft) 93,62 %
07.02.2019 11:04 8,9 C 10,0 C 7,2 C 82 % 1007,4 hPa 0,0 l/m 2 min 0 min 183 W/m 12,9 km/h (3 Bft) 100,00 %
07.02.2019 11:06 8,9 C 9,4 C 7,2 C 83 % 1007,5 hPa 0,0 l/m 2 min 0 min 175 W/m 19,3 km/h (3 Bft) 100,00 %
07.02.2019 11:08 8,9 C 9,4 C 7,2 C 82 % 1007,5 hPa 0,0 l/m 2 min 0 min 189 W/m 29,0 km/h (5 Bft) 95,12 %
07.02.2019 11:10 8,9 C 9,4 C 7,2 C 82 % 1007,5 hPa 0,0 l/m 2 min 0 min 211 W/m 12,9 km/h (3 Bft) 97,87 %
07.02.2019 11:12 8,9 C 9,4 C 7,2 C 82 % 1007,5 hPa 0,0 l/m 2 min 0 min 205 W/m 22,5 km/h (4 Bft) 100,00 %
07.02.2019 11:14 8,8 C 9,4 C 7,2 C 82 % 1007,4 hPa 0,2 l/m 2 min 0 min 224 W/m 38,6 km/h (5 Bft) 97,87 %
07.02.2019 11:16 8,8 C 9,4 C 7,2 C 82 % 1007,5 hPa 0,0 l/m 2 min 0 min 190 W/m 12,9 km/h (3 Bft) 95,74 %
07.02.2019 11:18 8,8 C 9,4 C 7,2 C 82 % 1007,5 hPa 0,0 l/m 2 min 0 min 194 W/m 22,5 km/h (4 Bft) 97,83 %
07.02.2019 11:20 8,8 C 9,4 C 7,2 C 82 % 1007,6 hPa 0,0 l/m 2 min 0 min 194 W/m 9,7 km/h (2 Bft) 97,87 %
07.02.2019 11:22 8,8 C 9,4 C 7,2 C 82 % 1007,5 hPa 0,0 l/m 2 min 0 min 182 W/m 22,5 km/h (4 Bft) 97,87 %
07.02.2019 11:24 8,8 C 9,4 C 7,2 C 82 % 1007,6 hPa 0,0 l/m 0 min 0 min 168 W/m 35,4 km/h (5 Bft) 97,87 %
07.02.2019 11:26 8,7 C 9,4 C 7,2 C 82 % 1007,5 hPa 0,0 l/m 0 min 0 min 167 W/m 35,4 km/h (5 Bft) 95,74 %
07.02.2019 11:28 8,7 C 9,4 C 7,2 C 82 % 1007,5 hPa 0,0 l/m 0 min 0 min 173 W/m 19,3 km/h (3 Bft) 97,87 %
07.02.2019 11:30 8,7 C 9,4 C 7,2 C 82 % 1007,4 hPa 0,0 l/m 2 min 0 min 197 W/m 32,2 km/h (5 Bft) 97,83 %
07.02.2019 11:32 8,7 C 9,4 C 7,2 C 82 % 1007,5 hPa 0,0 l/m 2 min 0 min 199 W/m 22,5 km/h (4 Bft) 97,87 %
07.02.2019 11:34 8,7 C 9,4 C 7,2 C 81 % 1007,5 hPa 0,0 l/m 2 min 0 min 185 W/m 19,3 km/h (3 Bft) 97,87 %
07.02.2019 11:36 8,7 C 10,0 C 7,2 C 82 % 1007,5 hPa 0,0 l/m 2 min 0 min 210 W/m 16,1 km/h (3 Bft) 96,15 %
07.02.2019 11:38 8,7 C 10,6 C 7,8 C 82 % 1007,5 hPa 0,0 l/m 2 min 0 min 216 W/m 9,7 km/h (2 Bft) 92,86 %
07.02.2019 11:40 8,7 C 10,6 C 7,8 C 82 % 1007,5 hPa 0,0 l/m 2 min 0 min 225 W/m 16,1 km/h (3 Bft) 95,74 %
07.02.2019 11:42 8,8 C 9,4 C 7,8 C 81 % 1007,6 hPa 0,0 l/m 0 min 0 min 145 W/m 19,3 km/h (3 Bft) 97,83 %
07.02.2019 11:44 8,8 C 10,0 C 7,8 C 81 % 1007,5 hPa 0,0 l/m 0 min 0 min 183 W/m 22,5 km/h (4 Bft) 97,87 %
07.02.2019 11:46 8,8 C 10,0 C 7,8 C 81 % 1007,6 hPa 0,0 l/m 2 min 0 min 192 W/m 16,1 km/h (3 Bft) 97,87 %
07.02.2019 11:48 8,8 C 11,1 C 8,3 C 81 % 1007,6 hPa 0,0 l/m 2 min 0 min 223 W/m 22,5 km/h (4 Bft) 97,87 %
07.02.2019 11:50 8,8 C 11,7 C 8,3 C 81 % 1007,6 hPa 0,0 l/m 2 min 0 min 359 W/m 25,7 km/h (4 Bft) 95,74 %
07.02.2019 11:52 8,8 C 10,6 C 8,3 C 81 % 1007,6 hPa 0,0 l/m 2 min 0 min 226 W/m 12,9 km/h (3 Bft) 95,74 %
07.02.2019 11:54 8,9 C 10,6 C 8,3 C 80 % 1007,5 hPa 0,0 l/m 2 min 0 min 213 W/m 12,9 km/h (3 Bft) 95,65 %
07.02.2019 11:56 8,9 C 10,0 C 8,3 C 80 % 1007,6 hPa 0,0 l/m 2 min 0 min 194 W/m 12,9 km/h (3 Bft) 93,62 %
07.02.2019 11:58 8,9 C 10,0 C 8,3 C 80 % 1007,6 hPa 0,0 l/m 2 min 0 min 215 W/m 19,3 km/h (3 Bft) 95,74 %
07.02.2019 12:00 8,9 C 10,6 C 8,9 C 80 % 1007,3 hPa 0,0 l/m 2 min 0 min 283 W/m 19,3 km/h (3 Bft) 95,74 %
07.02.2019 12:02 9,0 C 10,0 C 8,9 C 80 % 1007,4 hPa 0,0 l/m 2 min 0 min 213 W/m 22,5 km/h (4 Bft) 91,49 %
07.02.2019 12:04 9,0 C 9,4 C 8,9 C 79 % 1007,5 hPa 0,0 l/m 0 min 0 min 166 W/m 19,3 km/h (3 Bft) 93,62 %
07.02.2019 12:08 9,0 C 9,4 C 8,3 C 79 % 1007,5 hPa 0,0 l/m 0 min 0 min 132 W/m 38,6 km/h (5 Bft) 93,55 %
07.02.2019 12:10 8,9 C 8,9 C 8,3 C 78 % 1007,5 hPa 0,0 l/m 0 min 0 min 115 W/m 35,4 km/h (5 Bft) 95,74 %
07.02.2019 12:12 8,9 C 9,4 C 8,3 C 78 % 1007,4 hPa 0,0 l/m 0 min 0 min 111 W/m 48,3 km/h (6 Bft) 95,74 %
07.02.2019 12:14 8,9 C 11,1 C 8,3 C 78 % 1007,5 hPa 0,0 l/m 2 min 0 min 346 W/m 19,3 km/h (3 Bft) 95,74 %
07.02.2019 12:16 9,0 C 12,2 C 8,3 C 79 % 1007,5 hPa 0,0 l/m 2 min 0 min 421 W/m 32,2 km/h (5 Bft) 95,74 %
07.02.2019 12:18 9,1 C 13,3 C 8,9 C 78 % 1007,3 hPa 0,0 l/m 2 min 0 min 428 W/m 12,9 km/h (3 Bft) 95,65 %
07.02.2019 12:20 9,1 C 13,9 C 8,9 C 78 % 1007,4 hPa 0,0 l/m 2 min 0 min 354 W/m 22,5 km/h (4 Bft) 87,23 %
07.02.2019 12:22 9,2 C 12,8 C 8,9 C 78 % 1007,2 hPa 0,0 l/m 2 min 0 min 397 W/m 22,5 km/h (4 Bft) 87,23 %
07.02.2019 12:24 9,3 C 13,3 C 8,9 C 78 % 1007,4 hPa 0,0 l/m 2 min 0 min 395 W/m 29,0 km/h (5 Bft) 97,87 %
07.02.2019 12:26 9,4 C 13,9 C 8,9 C 78 % 1007,4 hPa 0,0 l/m 2 min 0 min 400 W/m 29,0 km/h (5 Bft) 97,87 %
07.02.2019 12:28 9,4 C 13,3 C 8,9 C 78 % 1007,4 hPa 0,0 l/m 2 min 0 min 395 W/m 29,0 km/h (5 Bft) 97,83 %
07.02.2019 12:30 9,5 C 12,8 C 9,4 C 78 % 1007,3 hPa 0,0 l/m 2 min 0 min 393 W/m 29,0 km/h (5 Bft) 95,74 %
07.02.2019 12:32 9,6 C 13,3 C 9,4 C 77 % 1007,4 hPa 0,0 l/m 2 min 0 min 404 W/m 22,5 km/h (4 Bft) 95,74 %
07.02.2019 12:34 9,7 C 13,3 C 10,0 C 77 % 1007,3 hPa 0,0 l/m 2 min 0 min 406 W/m 19,3 km/h (3 Bft) 97,87 %
07.02.2019 12:36 9,8 C 12,2 C 10,0 C 78 % 1007,3 hPa 0,0 l/m 2 min 0 min 245 W/m 19,3 km/h (3 Bft) 98,00 %
07.02.2019 12:38 9,8 C 11,1 C 9,4 C 77 % 1007,3 hPa 0,0 l/m 0 min 0 min 152 W/m 25,7 km/h (4 Bft) 95,74 %
07.02.2019 12:40 9,7 C 10,0 C 8,9 C 77 % 1007,3 hPa 0,0 l/m 0 min 0 min 163 W/m 22,5 km/h (4 Bft) 95,65 %
07.02.2019 12:42 9,7 C 11,1 C 9,4 C 77 % 1007,3 hPa 0,0 l/m 2 min 0 min 215 W/m 12,9 km/h (3 Bft) 93,62 %
07.02.2019 12:44 9,7 C 12,8 C 11,7 C 77 % 1007,3 hPa 0,0 l/m 2 min 0 min 295 W/m 19,3 km/h (3 Bft) 89,36 %
07.02.2019 12:46 9,8 C 11,7 C 10,6 C 77 % 1007,3 hPa 0,0 l/m 2 min 0 min 315 W/m 25,7 km/h (4 Bft) 95,74 %
07.02.2019 12:48 9,8 C 10,6 C 10,0 C 77 % 1007,3 hPa 0,0 l/m 0 min 0 min 150 W/m 19,3 km/h (3 Bft) 93,62 %
07.02.2019 12:50 9,7 C 11,1 C 10,0 C 77 % 1007,2 hPa 0,0 l/m 0 min 0 min 158 W/m 25,7 km/h (4 Bft) 91,49 %
07.02.2019 12:52 9,7 C 11,7 C 10,6 C 76 % 1007,2 hPa 0,0 l/m 2 min 0 min 331 W/m 19,3 km/h (3 Bft) 82,61 %
07.02.2019 12:54 9,7 C 10,6 C 9,4 C 75 % 1007,3 hPa 0,0 l/m 2 min 0 min 262 W/m 38,6 km/h (5 Bft) 89,36 %
07.02.2019 12:56 9,7 C 10,6 C 9,4 C 75 % 1007,2 hPa 0,0 l/m 0 min 0 min 126 W/m 19,3 km/h (3 Bft) 95,74 %
07.02.2019 12:58 9,6 C 10,0 C 8,9 C 75 % 1007,1 hPa 0,0 l/m 0 min 0 min 140 W/m 25,7 km/h (4 Bft) 91,49 %
07.02.2019 13:00 9,6 C 10,0 C 8,9 C 74 % 1007,1 hPa 0,0 l/m 0 min 0 min 158 W/m 41,8 km/h (6 Bft) 95,74 %
07.02.2019 13:02 9,4 C 11,1 C 8,9 C 74 % 1007,2 hPa 0,0 l/m 2 min 0 min 220 W/m 22,5 km/h (4 Bft) 91,49 %
07.02.2019 13:04 9,4 C 11,1 C 8,9 C 74 % 1007,1 hPa 0,0 l/m 2 min 0 min 326 W/m 22,5 km/h (4 Bft) 91,30 %
07.02.2019 13:06 9,3 C 10,6 C 8,9 C 75 % 1007,0 hPa 0,0 l/m 2 min 0 min 211 W/m 25,7 km/h (4 Bft) 91,49 %
07.02.2019 13:08 9,2 C 11,1 C 8,9 C 75 % 1006,9 hPa 0,0 l/m 2 min 0 min 358 W/m 25,7 km/h (4 Bft) 87,23 %
07.02.2019 13:10 9,3 C 12,2 C 10,0 C 75 % 1006,9 hPa 0,0 l/m 2 min 0 min 438 W/m 29,0 km/h (5 Bft) 76,60 %
07.02.2019 13:12 9,4 C 11,1 C 9,4 C 75 % 1006,9 hPa 0,0 l/m 2 min 0 min 396 W/m 32,2 km/h (5 Bft) 93,62 %
07.02.2019 13:14 9,3 C 10,0 C 8,9 C 75 % 1006,9 hPa 0,0 l/m 0 min 0 min 101 W/m 25,7 km/h (4 Bft) 97,87 %
07.02.2019 13:16 9,3 C 11,7 C 9,4 C 75 % 1006,9 hPa 0,0 l/m 2 min 0 min 254 W/m 29,0 km/h (5 Bft) 95,65 %
07.02.2019 13:18 9,4 C 11,7 C 8,9 C 75 % 1006,9 hPa 0,0 l/m 2 min 0 min 301 W/m 41,8 km/h (6 Bft) 91,49 %
07.02.2019 13:20 9,5 C 12,8 C 9,4 C 75 % 1006,9 hPa 0,0 l/m 2 min 0 min 237 W/m 22,5 km/h (4 Bft) 100,00 %
07.02.2019 13:22 9,6 C 11,7 C 9,4 C 75 % 1007,0 hPa 0,0 l/m 2 min 0 min 417 W/m 32,2 km/h (5 Bft) 97,87 %
07.02.2019 13:24 9,6 C 12,2 C 8,9 C 74 % 1006,9 hPa 0,0 l/m 0 min 0 min 140 W/m 22,5 km/h (4 Bft) 97,87 %
07.02.2019 13:26 9,6 C 12,2 C 8,9 C 74 % 1007,0 hPa 0,0 l/m 2 min 0 min 424 W/m 16,1 km/h (3 Bft) 100,00 %
07.02.2019 13:28 9,6 C 11,7 C 8,9 C 74 % 1006,9 hPa 0,0 l/m 2 min 0 min 445 W/m 25,7 km/h (4 Bft) 100,00 %
07.02.2019 13:30 9,6 C 12,2 C 8,9 C 74 % 1007,0 hPa 0,0 l/m 2 min 0 min 400 W/m 29,0 km/h (5 Bft) 100,00 %
07.02.2019 13:32 9,6 C 12,2 C 8,9 C 74 % 1007,0 hPa 0,0 l/m 2 min 0 min 369 W/m 19,3 km/h (3 Bft) 100,00 %
07.02.2019 13:34 9,7 C 13,3 C 8,9 C 75 % 1007,1 hPa 0,0 l/m 2 min 0 min 301 W/m 16,1 km/h (3 Bft) 95,74 %
07.02.2019 13:36 9,7 C 12,2 C 9,4 C 74 % 1007,1 hPa 0,0 l/m 2 min 0 min 451 W/m 25,7 km/h (4 Bft) 97,87 %
07.02.2019 13:38 9,7 C 12,2 C 9,4 C 74 % 1007,0 hPa 0,0 l/m 2 min 0 min 203 W/m 19,3 km/h (3 Bft) 100,00 %
07.02.2019 13:40 9,7 C 11,1 C 8,9 C 74 % 1007,2 hPa 0,0 l/m 0 min 0 min 131 W/m 16,1 km/h (3 Bft) 100,00 %
07.02.2019 13:42 9,6 C 11,1 C 8,9 C 74 % 1007,1 hPa 0,0 l/m 0 min 0 min 155 W/m 19,3 km/h (3 Bft) 100,00 %
07.02.2019 13:44 9,7 C 13,3 C 8,9 C 74 % 1007,0 hPa 0,0 l/m 2 min 0 min 257 W/m 29,0 km/h (5 Bft) 100,00 %
07.02.2019 13:46 9,8 C 12,2 C 9,4 C 74 % 1007,4 hPa 0,0 l/m 2 min 0 min 461 W/m 25,7 km/h (4 Bft) 100,00 %
07.02.2019 13:48 9,8 C 10,6 C 8,9 C 73 % 1007,3 hPa 0,0 l/m 0 min 0 min 158 W/m 25,7 km/h (4 Bft) 100,00 %
07.02.2019 13:50 9,8 C 11,7 C 8,9 C 74 % 1007,1 hPa 0,0 l/m 2 min 0 min 204 W/m 16,1 km/h (3 Bft) 100,00 %
07.02.2019 13:52 9,8 C 12,2 C 9,4 C 74 % 1007,0 hPa 0,0 l/m 2 min 0 min 234 W/m 16,1 km/h (3 Bft) 100,00 %
07.02.2019 13:54 9,9 C 13,3 C 9,4 C 74 % 1007,0 hPa 0,0 l/m 2 min 0 min 350 W/m 25,7 km/h (4 Bft) 100,00 %
07.02.2019 13:56 10,0 C 13,3 C 9,4 C 72 % 1007,0 hPa 0,0 l/m 2 min 0 min 390 W/m 32,2 km/h (5 Bft) 100,00 %
07.02.2019 13:58 10,0 C 13,9 C 9,4 C 73 % 1006,9 hPa 0,0 l/m 2 min 0 min 417 W/m 22,5 km/h (4 Bft) 100,00 %
07.02.2019 14:00 10,1 C 12,8 C 9,4 C 72 % 1006,8 hPa 0,0 l/m 2 min 0 min 384 W/m 25,7 km/h (4 Bft) 100,00 %
07.02.2019 14:02 10,1 C 13,3 C 9,4 C 72 % 1006,8 hPa 0,0 l/m 2 min 0 min 378 W/m 38,6 km/h (5 Bft) 100,00 %
07.02.2019 14:04 10,1 C 12,2 C 9,4 C 71 % 1006,8 hPa 0,0 l/m 2 min 0 min 305 W/m 38,6 km/h (5 Bft) 100,00 %
07.02.2019 14:06 10,1 C 12,8 C 9,4 C 72 % 1006,9 hPa 0,0 l/m 2 min 0 min 385 W/m 35,4 km/h (5 Bft) 98,00 %
07.02.2019 14:08 10,1 C 13,3 C 9,4 C 72 % 1006,9 hPa 0,0 l/m 2 min 0 min 390 W/m 35,4 km/h (5 Bft) 100,00 %
07.02.2019 14:10 10,1 C 12,2 C 9,4 C 72 % 1006,9 hPa 0,0 l/m 2 min 0 min 385 W/m 22,5 km/h (4 Bft) 100,00 %
07.02.2019 14:12 10,2 C 12,2 C 9,4 C 72 % 1006,9 hPa 0,0 l/m 2 min 0 min 354 W/m 19,3 km/h (3 Bft) 100,00 %
07.02.2019 14:14 10,1 C 12,8 C 9,4 C 71 % 1007,0 hPa 0,0 l/m 2 min 0 min 238 W/m 32,2 km/h (5 Bft) 100,00 %
07.02.2019 14:16 10,1 C 12,2 C 9,4 C 71 % 1006,9 hPa 0,0 l/m 2 min 0 min 241 W/m 25,7 km/h (4 Bft) 100,00 %
07.02.2019 14:18 10,2 C 13,3 C 10,0 C 72 % 1006,9 hPa 0,0 l/m 2 min 0 min 358 W/m 32,2 km/h (5 Bft) 100,00 %
07.02.2019 14:20 10,3 C 12,8 C 10,0 C 71 % 1006,9 hPa 0,0 l/m 2 min 0 min 446 W/m 29,0 km/h (5 Bft) 100,00 %
07.02.2019 14:22 10,3 C 12,8 C 10,0 C 70 % 1006,9 hPa 0,0 l/m 2 min 0 min 344 W/m 45,1 km/h (6 Bft) 97,83 %
07.02.2019 14:24 10,3 C 12,8 C 10,6 C 71 % 1006,9 hPa 0,0 l/m 2 min 0 min 264 W/m 29,0 km/h (5 Bft) 100,00 %
07.02.2019 14:26 10,3 C 13,9 C 11,7 C 71 % 1006,9 hPa 0,0 l/m 2 min 0 min 433 W/m 16,1 km/h (3 Bft) 100,00 %
07.02.2019 14:28 10,4 C 12,8 C 10,6 C 71 % 1006,9 hPa 0,0 l/m 2 min 0 min 456 W/m 32,2 km/h (5 Bft) 97,87 %
07.02.2019 14:30 10,4 C 13,9 C 10,0 C 70 % 1006,9 hPa 0,0 l/m 2 min 0 min 457 W/m 25,7 km/h (4 Bft) 100,00 %
07.02.2019 14:32 10,5 C 13,9 C 10,0 C 70 % 1006,8 hPa 0,0 l/m 2 min 0 min 413 W/m 35,4 km/h (5 Bft) 97,87 %
07.02.2019 14:34 10,4 C 13,3 C 10,0 C 70 % 1006,8 hPa 0,0 l/m 2 min 0 min 420 W/m 54,7 km/h (7 Bft) 97,83 %
07.02.2019 14:36 10,4 C 13,3 C 9,4 C 70 % 1006,8 hPa 0,0 l/m 2 min 0 min 376 W/m 32,2 km/h (5 Bft) 97,87 %
07.02.2019 14:38 10,5 C 13,9 C 10,0 C 71 % 1006,8 hPa 0,0 l/m 2 min 0 min 417 W/m 38,6 km/h (5 Bft) 100,00 %
07.02.2019 14:40 10,4 C 11,7 C 9,4 C 69 % 1007,0 hPa 0,0 l/m 2 min 0 min 323 W/m 29,0 km/h (5 Bft) 97,87 %
07.02.2019 14:42 10,4 C 12,8 C 9,4 C 70 % 1006,9 hPa 0,0 l/m 2 min 0 min 246 W/m 25,7 km/h (4 Bft) 97,87 %
07.02.2019 14:44 10,4 C 11,7 C 9,4 C 69 % 1007,1 hPa 0,0 l/m 2 min 0 min 210 W/m 38,6 km/h (5 Bft) 97,87 %
07.02.2019 14:46 10,3 C 11,1 C 9,4 C 70 % 1006,9 hPa 0,0 l/m 0 min 0 min 129 W/m 25,7 km/h (4 Bft) 97,83 %
07.02.2019 14:48 10,2 C 10,6 C 9,4 C 69 % 1006,9 hPa 0,0 l/m 0 min 0 min 146 W/m 45,1 km/h (6 Bft) 97,87 %
07.02.2019 14:50 10,1 C 10,6 C 9,4 C 70 % 1006,9 hPa 0,0 l/m 0 min 0 min 154 W/m 25,7 km/h (4 Bft) 95,74 %
07.02.2019 14:52 10,1 C 10,0 C 9,4 C 70 % 1006,9 hPa 0,0 l/m 0 min 0 min 144 W/m 29,0 km/h (5 Bft) 95,74 %
07.02.2019 14:54 10,0 C 10,0 C 9,4 C 70 % 1007,0 hPa 0,0 l/m 0 min 0 min 136 W/m 25,7 km/h (4 Bft) 97,87 %
07.02.2019 14:56 9,9 C 10,0 C 9,4 C 71 % 1007,0 hPa 0,0 l/m 0 min 0 min 145 W/m 19,3 km/h (3 Bft) 97,83 %
07.02.2019 14:58 9,9 C 10,0 C 8,9 C 71 % 1007,0 hPa 0,0 l/m 0 min 0 min 128 W/m 22,5 km/h (4 Bft) 95,74 %
07.02.2019 15:00 9,9 C 10,0 C 8,9 C 71 % 1007,0 hPa 0,0 l/m 0 min 0 min 143 W/m 19,3 km/h (3 Bft) 93,62 %
07.02.2019 15:02 9,9 C 10,0 C 8,9 C 71 % 1007,0 hPa 0,0 l/m 0 min 0 min 129 W/m 35,4 km/h (5 Bft) 95,74 %
07.02.2019 15:04 9,9 C 11,7 C 8,9 C 71 % 1006,9 hPa 0,0 l/m 2 min 0 min 180 W/m 19,3 km/h (3 Bft) 95,74 %
07.02.2019 15:06 10,0 C 12,8 C 8,9 C 71 % 1006,9 hPa 0,0 l/m 2 min 0 min 314 W/m 19,3 km/h (3 Bft) 95,74 %
07.02.2019 15:08 10,1 C 12,8 C 8,9 C 71 % 1006,9 hPa 0,0 l/m 2 min 0 min 306 W/m 19,3 km/h (3 Bft) 95,65 %
07.02.2019 15:10 10,1 C 12,2 C 8,9 C 70 % 1007,0 hPa 0,0 l/m 2 min 0 min 302 W/m 29,0 km/h (5 Bft) 93,62 %
07.02.2019 15:12 10,1 C 12,2 C 8,9 C 70 % 1007,1 hPa 0,0 l/m 2 min 0 min 302 W/m 25,7 km/h (4 Bft) 93,62 %
07.02.2019 15:14 10,1 C 11,7 C 8,9 C 70 % 1007,1 hPa 0,0 l/m 2 min 0 min 280 W/m 29,0 km/h (5 Bft) 93,75 %
07.02.2019 15:16 10,0 C 11,1 C 8,9 C 70 % 1007,1 hPa 0,0 l/m 2 min 0 min 304 W/m 32,2 km/h (5 Bft) 95,74 %
07.02.2019 15:18 10,0 C 11,1 C 8,9 C 71 % 1007,2 hPa 0,0 l/m 2 min 0 min 269 W/m 32,2 km/h (5 Bft) 93,62 %
07.02.2019 15:20 9,9 C 10,6 C 8,9 C 71 % 1007,2 hPa 0,0 l/m 2 min 0 min 188 W/m 25,7 km/h (4 Bft) 91,49 %
07.02.2019 15:22 9,9 C 10,0 C 8,9 C 71 % 1007,2 hPa 0,0 l/m 0 min 0 min 96 W/m 16,1 km/h (3 Bft) 93,62 %
07.02.2019 15:24 9,9 C 9,4 C 8,9 C 71 % 1007,2 hPa 0,0 l/m 0 min 0 min 82 W/m 29,0 km/h (5 Bft) 95,65 %
07.02.2019 15:26 9,8 C 9,4 C 8,9 C 72 % 1007,3 hPa 0,0 l/m 0 min 0 min 61 W/m 25,7 km/h (4 Bft) 93,62 %
07.02.2019 15:28 9,8 C 9,4 C 8,9 C 72 % 1007,3 hPa 0,0 l/m 0 min 0 min 58 W/m 41,8 km/h (6 Bft) 93,62 %
07.02.2019 15:30 9,8 C 9,4 C 8,9 C 71 % 1007,2 hPa 0,0 l/m 0 min 0 min 53 W/m 35,4 km/h (5 Bft) 95,74 %
07.02.2019 15:32 9,8 C 9,4 C 8,3 C 71 % 1007,2 hPa 0,0 l/m 0 min 0 min 44 W/m 35,4 km/h (5 Bft) 95,74 %
07.02.2019 15:34 9,7 C 9,4 C 8,3 C 72 % 1007,2 hPa 0,0 l/m 0 min 0 min 42 W/m 38,6 km/h (5 Bft) 95,74 %
07.02.2019 15:36 9,7 C 8,9 C 8,3 C 72 % 1007,2 hPa 0,0 l/m 0 min 0 min 38 W/m 22,5 km/h (4 Bft) 95,65 %
07.02.2019 15:38 9,7 C 8,9 C 8,3 C 72 % 1007,3 hPa 0,0 l/m 0 min 0 min 30 W/m 16,1 km/h (3 Bft) 93,62 %
07.02.2019 15:40 9,7 C 8,9 C 8,3 C 72 % 1007,4 hPa 0,0 l/m 0 min 0 min 37 W/m 19,3 km/h (3 Bft) 95,74 %
07.02.2019 15:42 9,7 C 8,9 C 8,3 C 72 % 1007,4 hPa 0,0 l/m 0 min 0 min 59 W/m 22,5 km/h (4 Bft) 93,62 %
07.02.2019 15:44 9,6 C 8,9 C 8,3 C 72 % 1007,3 hPa 0,0 l/m 0 min 0 min 69 W/m 19,3 km/h (3 Bft) 95,74 %
07.02.2019 15:46 9,6 C 9,4 C 8,3 C 72 % 1007,4 hPa 0,0 l/m 0 min 0 min 69 W/m 25,7 km/h (4 Bft) 95,65 %
07.02.2019 15:48 9,6 C 9,4 C 8,3 C 72 % 1007,4 hPa 0,0 l/m 0 min 0 min 64 W/m 25,7 km/h (4 Bft) 95,74 %
07.02.2019 15:50 9,6 C 9,4 C 8,3 C 72 % 1007,3 hPa 0,0 l/m 0 min 0 min 65 W/m 19,3 km/h (3 Bft) 97,87 %
07.02.2019 15:52 9,6 C 9,4 C 8,3 C 72 % 1007,4 hPa 0,0 l/m 0 min 0 min 77 W/m 38,6 km/h (5 Bft) 97,87 %
07.02.2019 15:54 9,6 C 9,4 C 8,3 C 71 % 1007,4 hPa 0,0 l/m 0 min 0 min 98 W/m 41,8 km/h (6 Bft) 97,87 %
07.02.2019 15:56 9,6 C 9,4 C 8,3 C 71 % 1007,5 hPa 0,0 l/m 0 min 0 min 86 W/m 32,2 km/h (5 Bft) 95,74 %
07.02.2019 15:58 9,6 C 9,4 C 8,3 C 72 % 1007,5 hPa 0,0 l/m 0 min 0 min 76 W/m 25,7 km/h (4 Bft) 95,74 %
07.02.2019 16:00 9,5 C 8,9 C 8,3 C 72 % 1007,5 hPa 0,0 l/m 0 min 0 min 58 W/m 22,5 km/h (4 Bft) 93,48 %
07.02.2019 16:02 9,5 C 8,9 C 8,3 C 72 % 1007,6 hPa 0,0 l/m 0 min 0 min 44 W/m 19,3 km/h (3 Bft) 97,87 %
07.02.2019 16:04 9,5 C 8,9 C 8,3 C 72 % 1007,6 hPa 0,0 l/m 0 min 0 min 47 W/m 22,5 km/h (4 Bft) 97,87 %
07.02.2019 16:06 9,4 C 8,9 C 8,3 C 72 % 1007,6 hPa 0,0 l/m 0 min 0 min 45 W/m 41,8 km/h (6 Bft) 97,87 %
07.02.2019 16:08 9,4 C 8,9 C 8,3 C 72 % 1007,6 hPa 0,0 l/m 0 min 0 min 40 W/m 19,3 km/h (3 Bft) 95,74 %
07.02.2019 16:10 9,4 C 8,9 C 8,3 C 72 % 1007,5 hPa 0,0 l/m 0 min 0 min 38 W/m 29,0 km/h (5 Bft) 100,00 %
07.02.2019 16:12 9,4 C 8,9 C 8,3 C 73 % 1007,5 hPa 0,0 l/m 0 min 0 min 37 W/m 35,4 km/h (5 Bft) 97,87 %
07.02.2019 16:14 9,4 C 8,9 C 8,3 C 73 % 1007,6 hPa 0,0 l/m 0 min 0 min 35 W/m 16,1 km/h (3 Bft) 100,00 %
07.02.2019 16:16 9,4 C 8,9 C 8,3 C 73 % 1007,7 hPa 0,0 l/m 0 min 0 min 33 W/m 29,0 km/h (5 Bft) 100,00 %
07.02.2019 16:18 9,4 C 8,9 C 8,3 C 73 % 1007,6 hPa 0,0 l/m 0 min 0 min 30 W/m 22,5 km/h (4 Bft) 100,00 %
07.02.2019 16:20 9,4 C 8,9 C 8,3 C 73 % 1007,6 hPa 0,0 l/m 0 min 0 min 34 W/m 48,3 km/h (6 Bft) 100,00 %
07.02.2019 16:22 9,3 C 8,9 C 8,3 C 72 % 1007,5 hPa 0,0 l/m 0 min 0 min 56 W/m 35,4 km/h (5 Bft) 100,00 %
07.02.2019 16:24 9,4 C 8,9 C 8,3 C 72 % 1007,5 hPa 0,0 l/m 0 min 0 min 62 W/m 25,7 km/h (4 Bft) 100,00 %
07.02.2019 16:26 9,3 C 8,9 C 8,3 C 72 % 1007,4 hPa 0,0 l/m 0 min 0 min 49 W/m 22,5 km/h (4 Bft) 100,00 %
07.02.2019 16:28 9,4 C 8,9 C 8,3 C 73 % 1007,5 hPa 0,0 l/m 0 min 0 min 41 W/m 19,3 km/h (3 Bft) 100,00 %
07.02.2019 16:30 9,3 C 8,9 C 8,3 C 73 % 1007,5 hPa 0,0 l/m 0 min 0 min 37 W/m 29,0 km/h (5 Bft) 100,00 %
07.02.2019 16:32 9,3 C 8,9 C 8,3 C 73 % 1007,3 hPa 0,0 l/m 0 min 0 min 27 W/m 16,1 km/h (3 Bft) 100,00 %
07.02.2019 16:34 9,3 C 8,9 C 8,3 C 73 % 1007,3 hPa 0,0 l/m 0 min 0 min 23 W/m 32,2 km/h (5 Bft) 100,00 %
07.02.2019 16:36 9,3 C 8,9 C 8,3 C 73 % 1007,5 hPa 0,0 l/m 0 min 0 min 18 W/m 22,5 km/h (4 Bft) 97,87 %
07.02.2019 16:38 9,3 C 8,9 C 8,3 C 72 % 1007,5 hPa 0,0 l/m 0 min 0 min 13 W/m 22,5 km/h (4 Bft) 100,00 %
07.02.2019 16:40 9,3 C 8,3 C 7,8 C 73 % 1007,6 hPa 0,0 l/m 0 min 0 min 16 W/m 32,2 km/h (5 Bft) 100,00 %
07.02.2019 16:42 9,3 C 7,8 C 7,2 C 73 % 1007,5 hPa 0,0 l/m 0 min 2 min 21 W/m 25,7 km/h (4 Bft) 100,00 %
07.02.2019 16:44 9,3 C 7,8 C 7,2 C 74 % 1007,4 hPa 0,0 l/m 0 min 2 min 17 W/m 22,5 km/h (4 Bft) 100,00 %
07.02.2019 16:46 9,2 C 7,8 C 7,2 C 74 % 1007,5 hPa 0,0 l/m 0 min 2 min 14 W/m 25,7 km/h (4 Bft) 100,00 %
07.02.2019 16:48 9,2 C 8,3 C 7,8 C 74 % 1007,5 hPa 0,0 l/m 0 min 2 min 10 W/m 19,3 km/h (3 Bft) 95,74 %
07.02.2019 16:50 9,2 C 7,8 C 7,2 C 74 % 1007,5 hPa 0,0 l/m 0 min 2 min 10 W/m 25,7 km/h (4 Bft) 100,00 %
07.02.2019 16:52 9,1 C 7,2 C 6,7 C 75 % 1007,7 hPa 0,0 l/m 0 min 2 min 15 W/m 22,5 km/h (4 Bft) 100,00 %
07.02.2019 16:54 9,1 C 6,7 C 6,1 C 76 % 1007,8 hPa 0,0 l/m 0 min 2 min 40 W/m 25,7 km/h (4 Bft) 100,00 %
07.02.2019 16:56 9,0 C 6,1 C 5,6 C 77 % 1007,8 hPa 0,0 l/m 2 min 2 min 75 W/m 25,7 km/h (4 Bft) 97,87 %
07.02.2019 16:58 9,0 C 6,1 C 5,6 C 78 % 1007,8 hPa 0,0 l/m 2 min 2 min 45 W/m 16,1 km/h (3 Bft) 100,00 %
07.02.2019 17:00 8,9 C 6,1 C 5,6 C 79 % 1007,9 hPa 0,0 l/m 0 min 2 min 22 W/m 16,1 km/h (3 Bft) 100,00 %
07.02.2019 17:02 8,8 C 6,1 C 5,0 C 79 % 1007,8 hPa 0,0 l/m 0 min 2 min 17 W/m 25,7 km/h (4 Bft) 100,00 %
07.02.2019 17:04 8,7 C 6,1 C 5,0 C 80 % 1007,8 hPa 0,0 l/m 0 min 2 min 17 W/m 12,9 km/h (3 Bft) 100,00 %
07.02.2019 17:06 8,6 C 6,1 C 5,0 C 80 % 1007,8 hPa 0,0 l/m 0 min 0 min 13 W/m 6,4 km/h (2 Bft) 100,00 %
07.02.2019 17:08 8,5 C 6,1 C 5,0 C 80 % 1007,8 hPa 0,0 l/m 0 min 0 min 11 W/m 9,7 km/h (2 Bft) 100,00 %
07.02.2019 17:10 8,4 C 6,1 C 5,0 C 80 % 1007,8 hPa 0,0 l/m 0 min 0 min 11 W/m 9,7 km/h (2 Bft) 100,00 %
07.02.2019 17:12 8,4 C 6,1 C 5,6 C 81 % 1007,7 hPa 0,0 l/m 0 min 0 min 12 W/m 19,3 km/h (3 Bft) 97,87 %
07.02.2019 17:14 8,3 C 6,1 C 5,6 C 81 % 1007,7 hPa 0,0 l/m 0 min 0 min 11 W/m 12,9 km/h (3 Bft) 100,00 %
07.02.2019 17:16 8,2 C 6,1 C 5,6 C 81 % 1007,7 hPa 0,0 l/m 0 min 0 min 11 W/m 16,1 km/h (3 Bft) 100,00 %
07.02.2019 17:18 8,2 C 6,7 C 5,6 C 81 % 1007,7 hPa 0,0 l/m 0 min 0 min 11 W/m 22,5 km/h (4 Bft) 97,87 %
07.02.2019 17:20 8,1 C 6,7 C 6,1 C 81 % 1007,7 hPa 0,0 l/m 0 min 0 min 8 W/m 16,1 km/h (3 Bft) 97,87 %
07.02.2019 17:22 8,1 C 6,7 C 6,1 C 81 % 1007,7 hPa 0,0 l/m 0 min 0 min 7 W/m 35,4 km/h (5 Bft) 100,00 %
07.02.2019 17:24 8,1 C 7,2 C 6,1 C 80 % 1007,6 hPa 0,0 l/m 0 min 0 min 7 W/m 29,0 km/h (5 Bft) 100,00 %
07.02.2019 17:26 8,1 C 7,2 C 6,1 C 80 % 1007,7 hPa 0,0 l/m 0 min 0 min 5 W/m 22,5 km/h (4 Bft) 100,00 %
07.02.2019 17:28 8,1 C 7,2 C 6,1 C 80 % 1007,7 hPa 0,0 l/m 0 min 0 min 5 W/m 19,3 km/h (3 Bft) 100,00 %
07.02.2019 17:30 8,1 C 7,2 C 6,1 C 80 % 1007,7 hPa 0,0 l/m 0 min 0 min 5 W/m 41,8 km/h (6 Bft) 100,00 %
07.02.2019 17:32 8,1 C 7,2 C 6,1 C 79 % 1007,6 hPa 0,0 l/m 0 min 0 min 1 W/m 12,9 km/h (3 Bft) 95,74 %
07.02.2019 17:34 8,1 C 7,2 C 6,1 C 79 % 1007,6 hPa 0,0 l/m 0 min 0 min 0 W/m 16,1 km/h (3 Bft) 100,00 %
07.02.2019 17:36 8,1 C 7,2 C 6,1 C 79 % 1007,7 hPa 0,0 l/m 0 min 0 min 0 W/m 19,3 km/h (3 Bft) 97,87 %
07.02.2019 17:38 8,1 C 7,2 C 6,1 C 79 % 1007,7 hPa 0,0 l/m 0 min 0 min 0 W/m 16,1 km/h (3 Bft) 100,00 %
07.02.2019 17:40 8,1 C 7,2 C 6,1 C 79 % 1007,7 hPa 0,0 l/m 0 min 0 min 0 W/m 19,3 km/h (3 Bft) 100,00 %
07.02.2019 17:42 8,1 C 7,2 C 6,7 C 79 % 1007,7 hPa 0,0 l/m 0 min 0 min 0 W/m 25,7 km/h (4 Bft) 100,00 %
07.02.2019 17:44 8,1 C 7,2 C 6,7 C 79 % 1007,8 hPa 0,0 l/m 0 min 0 min 0 W/m 38,6 km/h (5 Bft) 100,00 %
07.02.2019 17:46 8,1 C 7,2 C 6,7 C 79 % 1007,8 hPa 0,0 l/m 0 min 0 min 0 W/m 19,3 km/h (3 Bft) 97,87 %
07.02.2019 17:48 8,1 C 7,8 C 6,7 C 79 % 1007,8 hPa 0,0 l/m 0 min 0 min 0 W/m 32,2 km/h (5 Bft) 100,00 %
07.02.2019 17:50 8,1 C 7,2 C 6,7 C 78 % 1008,0 hPa 0,0 l/m 0 min 0 min 0 W/m 25,7 km/h (4 Bft) 91,49 %
07.02.2019 17:52 8,1 C 7,2 C 6,7 C 78 % 1007,9 hPa 0,0 l/m 0 min 0 min 0 W/m 22,5 km/h (4 Bft) 97,83 %
07.02.2019 17:54 8,1 C 7,2 C 6,7 C 78 % 1008,0 hPa 0,0 l/m 0 min 0 min 0 W/m 22,5 km/h (4 Bft) 95,74 %
07.02.2019 17:56 8,1 C 7,2 C 6,7 C 78 % 1008,0 hPa 0,0 l/m 0 min 0 min 0 W/m 25,7 km/h (4 Bft) 89,36 %
07.02.2019 17:58 8,1 C 7,2 C 6,7 C 78 % 1008,0 hPa 0,0 l/m 0 min 0 min 0 W/m 16,1 km/h (3 Bft) 95,74 %
07.02.2019 18:00 8,1 C 7,2 C 6,7 C 78 % 1008,0 hPa 0,0 l/m 0 min 0 min 0 W/m 22,5 km/h (4 Bft) 93,62 %
07.02.2019 18:02 8,1 C 7,2 C 6,7 C 78 % 1008,0 hPa 0,0 l/m 0 min 0 min 0 W/m 16,1 km/h (3 Bft) 93,62 %
07.02.2019 18:04 8,1 C 7,2 C 6,7 C 78 % 1008,0 hPa 0,0 l/m 0 min 0 min 0 W/m 29,0 km/h (5 Bft) 91,30 %
07.02.2019 18:08 8,0 C 7,2 C 6,7 C 78 % 1008,1 hPa 0,0 l/m 0 min 0 min 0 W/m 22,5 km/h (4 Bft) 93,62 %
07.02.2019 18:10 8,0 C 7,2 C 6,7 C 78 % 1008,1 hPa 0,0 l/m 0 min 0 min 0 W/m 16,1 km/h (3 Bft) 93,62 %
07.02.2019 18:12 8,0 C 7,2 C 6,7 C 78 % 1008,2 hPa 0,0 l/m 0 min 0 min 0 W/m 12,9 km/h (3 Bft) 91,49 %
07.02.2019 18:14 7,9 C 7,2 C 6,7 C 78 % 1008,2 hPa 0,0 l/m 0 min 0 min 0 W/m 19,3 km/h (3 Bft) 93,62 %
07.02.2019 18:16 7,9 C 7,2 C 6,7 C 78 % 1008,1 hPa 0,0 l/m 0 min 0 min 0 W/m 12,9 km/h (3 Bft) 93,48 %
07.02.2019 18:18 7,9 C 7,2 C 6,7 C 79 % 1008,3 hPa 0,0 l/m 0 min 0 min 0 W/m 16,1 km/h (3 Bft) 91,49 %
07.02.2019 18:20 7,9 C 7,2 C 6,1 C 79 % 1008,3 hPa 0,0 l/m 0 min 0 min 0 W/m 19,3 km/h (3 Bft) 93,62 %
07.02.2019 18:22 7,9 C 7,2 C 6,7 C 79 % 1008,3 hPa 0,0 l/m 0 min 0 min 0 W/m 22,5 km/h (4 Bft) 93,62 %
07.02.2019 18:24 7,8 C 7,2 C 6,7 C 79 % 1008,3 hPa 0,0 l/m 0 min 0 min 0 W/m 19,3 km/h (3 Bft) 93,62 %
07.02.2019 18:26 7,8 C 7,2 C 6,7 C 79 % 1008,3 hPa 0,0 l/m 0 min 0 min 0 W/m 19,3 km/h (3 Bft) 91,49 %
07.02.2019 18:28 7,8 C 7,2 C 6,7 C 79 % 1008,4 hPa 0,0 l/m 0 min 0 min 0 W/m 22,5 km/h (4 Bft) 89,13 %
07.02.2019 18:30 7,8 C 7,2 C 6,7 C 79 % 1008,4 hPa 0,0 l/m 0 min 0 min 0 W/m 25,7 km/h (4 Bft) 93,62 %
07.02.2019 18:32 7,8 C 7,2 C 6,1 C 79 % 1008,4 hPa 0,0 l/m 0 min 0 min 0 W/m 9,7 km/h (2 Bft) 95,74 %
07.02.2019 18:34 7,8 C 6,7 C 6,1 C 79 % 1008,4 hPa 0,0 l/m 0 min 0 min 0 W/m 12,9 km/h (3 Bft) 91,49 %
07.02.2019 18:36 7,7 C 6,7 C 6,1 C 79 % 1008,5 hPa 0,0 l/m 0 min 0 min 0 W/m 16,1 km/h (3 Bft) 93,62 %
07.02.2019 18:38 7,7 C 6,7 C 6,1 C 79 % 1008,5 hPa 0,0 l/m 0 min 0 min 0 W/m 16,1 km/h (3 Bft) 93,48 %
07.02.2019 18:40 7,7 C 6,7 C 6,1 C 79 % 1008,6 hPa 0,0 l/m 0 min 0 min 0 W/m 3,2 km/h (1 Bft) 93,62 %
07.02.2019 18:42 7,7 C 6,7 C 6,1 C 80 % 1008,6 hPa 0,0 l/m 0 min 0 min 0 W/m 16,1 km/h (3 Bft) 95,74 %
07.02.2019 18:44 7,7 C 7,2 C 6,1 C 80 % 1008,6 hPa 0,0 l/m 0 min 0 min 0 W/m 19,3 km/h (3 Bft) 93,62 %
07.02.2019 18:46 7,7 C 7,2 C 6,1 C 80 % 1008,7 hPa 0,0 l/m 0 min 0 min 0 W/m 9,7 km/h (2 Bft) 95,74 %
07.02.2019 18:48 7,6 C 6,7 C 6,1 C 80 % 1008,7 hPa 0,0 l/m 0 min 0 min 0 W/m 9,7 km/h (2 Bft) 97,87 %
07.02.2019 18:50 7,6 C 6,7 C 6,1 C 80 % 1008,7 hPa 0,0 l/m 0 min 0 min 0 W/m 9,7 km/h (2 Bft) 97,83 %
07.02.2019 18:52 7,6 C 6,7 C 6,1 C 80 % 1008,7 hPa 0,0 l/m 0 min 0 min 0 W/m 12,9 km/h (3 Bft) 97,87 %
07.02.2019 18:54 7,6 C 7,2 C 6,1 C 80 % 1008,9 hPa 0,0 l/m 0 min 0 min 0 W/m 16,1 km/h (3 Bft) 97,87 %
07.02.2019 18:56 7,6 C 7,2 C 6,7 C 80 % 1008,8 hPa 0,0 l/m 0 min 0 min 0 W/m 25,7 km/h (4 Bft) 95,74 %
07.02.2019 18:58 7,6 C 7,2 C 6,7 C 80 % 1008,9 hPa 0,0 l/m 0 min 0 min 0 W/m 16,1 km/h (3 Bft) 95,74 %
07.02.2019 19:00 7,6 C 7,2 C 6,7 C 80 % 1008,9 hPa 0,0 l/m 0 min 0 min 0 W/m 35,4 km/h (5 Bft) 100,00 %
07.02.2019 19:02 7,6 C 7,2 C 6,7 C 80 % 1008,9 hPa 0,0 l/m 0 min 0 min 0 W/m 19,3 km/h (3 Bft) 100,00 %
07.02.2019 19:04 7,7 C 7,2 C 6,7 C 80 % 1009,0 hPa 0,0 l/m 0 min 0 min 0 W/m 16,1 km/h (3 Bft) 100,00 %
07.02.2019 19:06 7,7 C 7,2 C 6,7 C 80 % 1008,9 hPa 0,0 l/m 0 min 0 min 0 W/m 16,1 km/h (3 Bft) 95,83 %
07.02.2019 19:08 7,7 C 7,2 C 6,7 C 80 % 1008,9 hPa 0,0 l/m 0 min 0 min 0 W/m 29,0 km/h (5 Bft) 100,00 %
07.02.2019 19:10 7,7 C 7,2 C 6,7 C 80 % 1009,0 hPa 0,0 l/m 0 min 0 min 0 W/m 51,5 km/h (7 Bft) 100,00 %
07.02.2019 19:12 7,7 C 7,2 C 6,7 C 80 % 1009,0 hPa 0,0 l/m 0 min 0 min 0 W/m 19,3 km/h (3 Bft) 100,00 %
07.02.2019 19:14 7,7 C 7,2 C 6,7 C 80 % 1008,9 hPa 0,0 l/m 0 min 0 min 0 W/m 16,1 km/h (3 Bft) 97,87 %
07.02.2019 19:16 7,7 C 7,2 C 6,7 C 80 % 1009,0 hPa 0,0 l/m 0 min 0 min 0 W/m 32,2 km/h (5 Bft) 97,83 %
07.02.2019 19:18 7,7 C 7,2 C 6,7 C 80 % 1009,0 hPa 0,0 l/m 0 min 0 min 0 W/m 25,7 km/h (4 Bft) 100,00 %
07.02.2019 19:20 7,7 C 7,2 C 6,7 C 80 % 1009,0 hPa 0,0 l/m 0 min 0 min 0 W/m 22,5 km/h (4 Bft) 100,00 %
07.02.2019 19:22 7,7 C 7,2 C 6,7 C 80 % 1009,0 hPa 0,0 l/m 0 min 0 min 0 W/m 12,9 km/h (3 Bft) 97,87 %
07.02.2019 19:24 7,7 C 7,2 C 6,7 C 80 % 1009,1 hPa 0,0 l/m 0 min 0 min 0 W/m 22,5 km/h (4 Bft) 100,00 %
07.02.2019 19:26 7,7 C 7,2 C 6,1 C 80 % 1009,1 hPa 0,0 l/m 0 min 0 min 0 W/m 6,4 km/h (2 Bft) 100,00 %
07.02.2019 19:28 7,7 C 7,2 C 6,1 C 80 % 1009,1 hPa 0,0 l/m 0 min 0 min 0 W/m 16,1 km/h (3 Bft) 100,00 %
07.02.2019 19:30 7,7 C 6,7 C 6,1 C 80 % 1009,1 hPa 0,0 l/m 0 min 0 min 0 W/m 16,1 km/h (3 Bft) 100,00 %
07.02.2019 19:32 7,6 C 6,7 C 6,1 C 80 % 1009,2 hPa 0,0 l/m 0 min 0 min 0 W/m 22,5 km/h (4 Bft) 100,00 %
07.02.2019 19:34 7,6 C 6,7 C 6,1 C 80 % 1009,2 hPa 0,0 l/m 0 min 0 min 0 W/m 16,1 km/h (3 Bft) 97,87 %
07.02.2019 19:36 7,6 C 6,7 C 6,1 C 80 % 1009,2 hPa 0,0 l/m 0 min 0 min 0 W/m 9,7 km/h (2 Bft) 100,00 %
07.02.2019 19:38 7,6 C 6,7 C 6,1 C 80 % 1009,2 hPa 0,0 l/m 0 min 0 min 0 W/m 22,5 km/h (4 Bft) 100,00 %
07.02.2019 19:40 7,5 C 6,7 C 6,1 C 80 % 1009,2 hPa 0,0 l/m 0 min 0 min 0 W/m 22,5 km/h (4 Bft) 100,00 %
07.02.2019 19:42 7,5 C 6,7 C 6,1 C 80 % 1009,2 hPa 0,0 l/m 0 min 0 min 0 W/m 12,9 km/h (3 Bft) 100,00 %
07.02.2019 19:44 7,4 C 6,7 C 6,1 C 80 % 1009,3 hPa 0,0 l/m 0 min 0 min 0 W/m 16,1 km/h (3 Bft) 100,00 %
07.02.2019 19:46 7,4 C 6,7 C 6,1 C 80 % 1009,3 hPa 0,0 l/m 0 min 0 min 0 W/m 19,3 km/h (3 Bft) 100,00 %
07.02.2019 19:48 7,4 C 6,7 C 6,1 C 81 % 1009,4 hPa 0,0 l/m 0 min 0 min 0 W/m 22,5 km/h (4 Bft) 100,00 %
07.02.2019 19:50 7,3 C 6,7 C 5,6 C 81 % 1009,3 hPa 0,0 l/m 0 min 0 min 0 W/m 19,3 km/h (3 Bft) 97,83 %
07.02.2019 19:52 7,3 C 6,1 C 5,6 C 81 % 1009,4 hPa 0,0 l/m 0 min 0 min 0 W/m 16,1 km/h (3 Bft) 97,87 %
07.02.2019 19:54 7,3 C 6,7 C 5,6 C 81 % 1009,3 hPa 0,0 l/m 0 min 0 min 0 W/m 41,8 km/h (6 Bft) 100,00 %
07.02.2019 19:56 7,2 C 6,1 C 5,6 C 81 % 1009,3 hPa 0,0 l/m 0 min 0 min 0 W/m 16,1 km/h (3 Bft) 100,00 %
07.02.2019 19:58 7,2 C 6,1 C 5,6 C 81 % 1009,3 hPa 0,0 l/m 0 min 0 min 0 W/m 19,3 km/h (3 Bft) 100,00 %
07.02.2019 20:00 7,2 C 6,1 C 5,6 C 82 % 1009,4 hPa 0,0 l/m 0 min 0 min 0 W/m 16,1 km/h (3 Bft) 100,00 %
07.02.2019 20:02 7,1 C 6,1 C 5,6 C 82 % 1009,3 hPa 0,0 l/m 0 min 0 min 0 W/m 29,0 km/h (5 Bft) 100,00 %
07.02.2019 20:04 7,1 C 6,1 C 5,6 C 82 % 1009,4 hPa 0,0 l/m 0 min 0 min 0 W/m 22,5 km/h (4 Bft) 100,00 %
07.02.2019 20:06 7,1 C 6,1 C 5,6 C 82 % 1009,4 hPa 0,0 l/m 0 min 0 min 0 W/m 22,5 km/h (4 Bft) 100,00 %
07.02.2019 20:08 7,1 C 6,1 C 5,6 C 82 % 1009,4 hPa 0,0 l/m 0 min 0 min 0 W/m 16,1 km/h (3 Bft) 97,87 %
07.02.2019 20:10 7,0 C 6,1 C 5,6 C 82 % 1009,4 hPa 0,0 l/m 0 min 0 min 0 W/m 19,3 km/h (3 Bft) 100,00 %
07.02.2019 20:12 7,0 C 6,1 C 5,6 C 83 % 1009,4 hPa 0,0 l/m 0 min 0 min 0 W/m 16,1 km/h (3 Bft) 97,87 %
07.02.2019 20:14 7,0 C 6,1 C 5,6 C 83 % 1009,4 hPa 0,0 l/m 0 min 0 min 0 W/m 16,1 km/h (3 Bft) 100,00 %
07.02.2019 20:16 7,0 C 6,1 C 5,6 C 83 % 1009,4 hPa 0,0 l/m 0 min 0 min 0 W/m 9,7 km/h (2 Bft) 100,00 %
07.02.2019 20:18 6,9 C 6,1 C 5,6 C 83 % 1009,4 hPa 0,0 l/m 0 min 0 min 0 W/m 32,2 km/h (5 Bft) 100,00 %
07.02.2019 20:20 7,0 C 6,7 C 5,6 C 83 % 1009,5 hPa 0,0 l/m 0 min 0 min 0 W/m 29,0 km/h (5 Bft) 97,87 %
07.02.2019 20:22 7,0 C 6,1 C 5,6 C 83 % 1009,5 hPa 0,0 l/m 0 min 0 min 0 W/m 25,7 km/h (4 Bft) 95,74 %
07.02.2019 20:24 6,9 C 6,1 C 5,6 C 83 % 1009,5 hPa 0,0 l/m 0 min 0 min 0 W/m 12,9 km/h (3 Bft) 95,74 %
07.02.2019 20:26 6,9 C 6,1 C 5,6 C 83 % 1009,6 hPa 0,0 l/m 0 min 0 min 0 W/m 22,5 km/h (4 Bft) 100,00 %
07.02.2019 20:28 6,9 C 6,1 C 5,6 C 83 % 1009,6 hPa 0,0 l/m 0 min 0 min 0 W/m 19,3 km/h (3 Bft) 97,87 %
07.02.2019 20:30 6,9 C 6,1 C 5,6 C 83 % 1009,6 hPa 0,0 l/m 0 min 0 min 0 W/m 19,3 km/h (3 Bft) 95,74 %
07.02.2019 20:32 6,9 C 6,1 C 5,6 C 83 % 1009,5 hPa 0,0 l/m 0 min 0 min 0 W/m 22,5 km/h (4 Bft) 97,87 %
07.02.2019 20:34 6,9 C 6,1 C 5,6 C 83 % 1009,6 hPa 0,0 l/m 0 min 0 min 0 W/m 16,1 km/h (3 Bft) 97,87 %
07.02.2019 20:36 6,9 C 6,1 C 5,6 C 83 % 1009,7 hPa 0,0 l/m 0 min 0 min 0 W/m 22,5 km/h (4 Bft) 100,00 %
07.02.2019 20:38 6,9 C 6,1 C 5,6 C 84 % 1009,7 hPa 0,0 l/m 0 min 0 min 0 W/m 19,3 km/h (3 Bft) 100,00 %
07.02.2019 20:40 6,9 C 6,1 C 5,6 C 84 % 1009,6 hPa 0,0 l/m 0 min 0 min 0 W/m 22,5 km/h (4 Bft) 95,74 %
07.02.2019 20:42 6,9 C 6,1 C 5,6 C 84 % 1009,6 hPa 0,0 l/m 0 min 0 min 0 W/m 25,7 km/h (4 Bft) 93,62 %
07.02.2019 20:44 6,9 C 6,1 C 5,6 C 84 % 1009,7 hPa 0,0 l/m 0 min 0 min 0 W/m 32,2 km/h (5 Bft) 95,74 %
07.02.2019 20:46 6,9 C 6,7 C 5,6 C 84 % 1009,7 hPa 0,0 l/m 0 min 0 min 0 W/m 32,2 km/h (5 Bft) 95,74 %
07.02.2019 20:48 6,9 C 6,7 C 5,6 C 84 % 1009,7 hPa 0,0 l/m 0 min 0 min 0 W/m 22,5 km/h (4 Bft) 93,62 %
07.02.2019 20:50 6,9 C 6,1 C 5,6 C 84 % 1009,7 hPa 0,0 l/m 0 min 0 min 0 W/m 19,3 km/h (3 Bft) 95,65 %
07.02.2019 20:52 6,9 C 6,1 C 5,6 C 84 % 1009,8 hPa 0,0 l/m 0 min 0 min 0 W/m 29,0 km/h (5 Bft) 95,74 %
07.02.2019 20:54 6,9 C 6,1 C 5,6 C 84 % 1009,7 hPa 0,0 l/m 0 min 0 min 0 W/m 22,5 km/h (4 Bft) 95,74 %
07.02.2019 20:56 6,9 C 6,7 C 5,6 C 84 % 1009,7 hPa 0,0 l/m 0 min 0 min 0 W/m 38,6 km/h (5 Bft) 93,62 %
07.02.2019 20:58 6,9 C 6,7 C 5,6 C 84 % 1009,7 hPa 0,0 l/m 0 min 0 min 0 W/m 32,2 km/h (5 Bft) 95,74 %
07.02.2019 21:00 6,9 C 6,7 C 5,6 C 84 % 1009,7 hPa 0,0 l/m 0 min 0 min 0 W/m 25,7 km/h (4 Bft) 95,65 %
07.02.2019 21:02 6,9 C 6,7 C 5,6 C 84 % 1009,7 hPa 0,0 l/m 0 min 0 min 0 W/m 29,0 km/h (5 Bft) 93,62 %
07.02.2019 21:04 6,9 C 6,7 C 5,6 C 84 % 1009,8 hPa 0,0 l/m 0 min 0 min 0 W/m 29,0 km/h (5 Bft) 95,74 %
07.02.2019 21:06 6,9 C 6,1 C 5,6 C 84 % 1009,8 hPa 0,0 l/m 0 min 0 min 0 W/m 9,7 km/h (2 Bft) 95,74 %
07.02.2019 21:08 6,9 C 6,1 C 5,6 C 84 % 1009,8 hPa 0,0 l/m 0 min 0 min 0 W/m 22,5 km/h (4 Bft) 95,74 %
07.02.2019 21:10 6,9 C 6,1 C 5,6 C 84 % 1009,8 hPa 0,0 l/m 0 min 0 min 0 W/m 9,7 km/h (2 Bft) 95,74 %
07.02.2019 21:12 6,9 C 6,1 C 5,6 C 84 % 1009,7 hPa 0,0 l/m 0 min 0 min 0 W/m 22,5 km/h (4 Bft) 93,48 %
07.02.2019 21:14 6,9 C 6,1 C 5,6 C 84 % 1009,7 hPa 0,0 l/m 0 min 0 min 0 W/m 25,7 km/h (4 Bft) 93,62 %
07.02.2019 21:16 6,9 C 6,1 C 5,6 C 84 % 1009,7 hPa 0,0 l/m 0 min 0 min 0 W/m 22,5 km/h (4 Bft) 93,62 %
07.02.2019 21:18 6,9 C 6,1 C 5,6 C 84 % 1009,8 hPa 0,0 l/m 0 min 0 min 0 W/m 12,9 km/h (3 Bft) 95,74 %
07.02.2019 21:20 6,9 C 6,1 C 5,6 C 84 % 1009,8 hPa 0,0 l/m 0 min 0 min 0 W/m 22,5 km/h (4 Bft) 95,74 %
07.02.2019 21:22 6,9 C 6,1 C 5,6 C 84 % 1009,8 hPa 0,0 l/m 0 min 0 min 0 W/m 16,1 km/h (3 Bft) 95,74 %
07.02.2019 21:24 6,8 C 6,1 C 5,6 C 84 % 1009,9 hPa 0,0 l/m 0 min 0 min 0 W/m 9,7 km/h (2 Bft) 95,65 %
07.02.2019 21:26 6,8 C 6,1 C 5,6 C 84 % 1009,9 hPa 0,0 l/m 0 min 0 min 0 W/m 16,1 km/h (3 Bft) 97,87 %
07.02.2019 21:28 6,8 C 6,1 C 5,6 C 84 % 1009,8 hPa 0,0 l/m 0 min 0 min 0 W/m 12,9 km/h (3 Bft) 97,87 %
07.02.2019 21:30 6,8 C 6,1 C 5,6 C 84 % 1009,8 hPa 0,0 l/m 0 min 0 min 0 W/m 22,5 km/h (4 Bft) 100,00 %
07.02.2019 21:32 6,8 C 6,1 C 5,6 C 84 % 1009,9 hPa 0,0 l/m 0 min 0 min 0 W/m 9,7 km/h (2 Bft) 97,87 %
07.02.2019 21:34 6,8 C 6,1 C 5,6 C 84 % 1010,0 hPa 0,0 l/m 0 min 0 min 0 W/m 16,1 km/h (3 Bft) 100,00 %
07.02.2019 21:36 6,8 C 6,1 C 5,6 C 84 % 1010,0 hPa 0,0 l/m 0 min 0 min 0 W/m 19,3 km/h (3 Bft) 97,83 %
07.02.2019 21:38 6,8 C 6,1 C 5,6 C 84 % 1009,9 hPa 0,0 l/m 0 min 0 min 0 W/m 19,3 km/h (3 Bft) 97,87 %
07.02.2019 21:40 6,8 C 6,1 C 5,6 C 84 % 1010,0 hPa 0,0 l/m 0 min 0 min 0 W/m 22,5 km/h (4 Bft) 97,87 %
07.02.2019 21:42 6,8 C 6,1 C 5,6 C 84 % 1010,1 hPa 0,0 l/m 0 min 0 min 0 W/m 19,3 km/h (3 Bft) 97,87 %
07.02.2019 21:44 6,8 C 6,1 C 5,6 C 84 % 1010,1 hPa 0,0 l/m 0 min 0 min 0 W/m 12,9 km/h (3 Bft) 97,87 %
07.02.2019 21:46 6,8 C 6,1 C 5,6 C 84 % 1010,1 hPa 0,0 l/m 0 min 2 min 0 W/m 16,1 km/h (3 Bft) 97,87 %
07.02.2019 21:48 6,8 C 6,1 C 5,6 C 84 % 1010,1 hPa 0,0 l/m 0 min 0 min 0 W/m 29,0 km/h (5 Bft) 97,83 %
07.02.2019 21:50 6,8 C 6,1 C 5,6 C 84 % 1010,3 hPa 0,0 l/m 0 min 0 min 0 W/m 19,3 km/h (3 Bft) 97,87 %
07.02.2019 21:52 6,8 C 6,1 C 5,6 C 84 % 1010,3 hPa 0,0 l/m 0 min 0 min 0 W/m 12,9 km/h (3 Bft) 95,74 %
07.02.2019 21:54 6,8 C 6,1 C 5,6 C 84 % 1010,3 hPa 0,0 l/m 0 min 0 min 0 W/m 9,7 km/h (2 Bft) 95,74 %
07.02.2019 21:56 6,8 C 6,1 C 5,6 C 84 % 1010,3 hPa 0,0 l/m 0 min 0 min 0 W/m 29,0 km/h (5 Bft) 97,87 %
07.02.2019 21:58 6,8 C 6,1 C 5,6 C 84 % 1010,3 hPa 0,0 l/m 0 min 0 min 0 W/m 22,5 km/h (4 Bft) 97,87 %
07.02.2019 22:00 6,8 C 6,1 C 5,6 C 84 % 1010,3 hPa 0,0 l/m 0 min 0 min 0 W/m 22,5 km/h (4 Bft) 97,83 %
07.02.2019 22:02 6,8 C 6,1 C 5,6 C 84 % 1010,4 hPa 0,0 l/m 0 min 0 min 0 W/m 25,7 km/h (4 Bft) 95,74 %
07.02.2019 22:04 6,8 C 6,1 C 5,6 C 84 % 1010,3 hPa 0,0 l/m 0 min 0 min 0 W/m 19,3 km/h (3 Bft) 97,87 %
07.02.2019 22:06 6,8 C 6,1 C 5,6 C 84 % 1010,4 hPa 0,0 l/m 0 min 0 min 0 W/m 19,3 km/h (3 Bft) 97,87 %
07.02.2019 22:08 6,8 C 6,1 C 5,6 C 84 % 1010,4 hPa 0,0 l/m 0 min 0 min 0 W/m 16,1 km/h (3 Bft) 97,87 %
07.02.2019 22:10 6,8 C 6,1 C 5,6 C 84 % 1010,4 hPa 0,0 l/m 0 min 0 min 0 W/m 16,1 km/h (3 Bft) 97,87 %
07.02.2019 22:12 6,8 C 6,1 C 5,6 C 84 % 1010,5 hPa 0,0 l/m 0 min 0 min 0 W/m 12,9 km/h (3 Bft) 97,83 %
07.02.2019 22:14 6,8 C 6,1 C 5,6 C 84 % 1010,5 hPa 0,0 l/m 0 min 0 min 0 W/m 22,5 km/h (4 Bft) 97,87 %
07.02.2019 22:16 6,8 C 6,1 C 5,6 C 84 % 1010,5 hPa 0,0 l/m 0 min 0 min 0 W/m 9,7 km/h (2 Bft) 97,87 %
07.02.2019 22:18 6,8 C 6,1 C 5,6 C 84 % 1010,5 hPa 0,0 l/m 0 min 0 min 0 W/m 16,1 km/h (3 Bft) 97,87 %
07.02.2019 22:20 6,8 C 6,1 C 5,6 C 84 % 1010,6 hPa 0,0 l/m 0 min 0 min 0 W/m 16,1 km/h (3 Bft) 97,87 %
07.02.2019 22:22 6,8 C 6,1 C 5,6 C 84 % 1010,6 hPa 0,0 l/m 0 min 0 min 0 W/m 19,3 km/h (3 Bft) 97,83 %
07.02.2019 22:24 6,8 C 6,1 C 5,6 C 84 % 1010,6 hPa 0,0 l/m 0 min 0 min 0 W/m 16,1 km/h (3 Bft) 97,87 %
07.02.2019 22:26 6,8 C 6,1 C 5,6 C 84 % 1010,6 hPa 0,0 l/m 0 min 0 min 0 W/m 12,9 km/h (3 Bft) 97,87 %
07.02.2019 22:28 6,8 C 6,7 C 5,6 C 84 % 1010,6 hPa 0,0 l/m 0 min 0 min 0 W/m 22,5 km/h (4 Bft) 97,87 %
07.02.2019 22:30 6,8 C 6,7 C 5,6 C 84 % 1010,6 hPa 0,0 l/m 0 min 0 min 0 W/m 16,1 km/h (3 Bft) 97,87 %
07.02.2019 22:32 6,8 C 6,1 C 5,6 C 84 % 1010,6 hPa 0,0 l/m 0 min 0 min 0 W/m 16,1 km/h (3 Bft) 97,87 %
07.02.2019 22:34 6,8 C 6,1 C 5,6 C 84 % 1010,6 hPa 0,0 l/m 0 min 0 min 0 W/m 6,4 km/h (2 Bft) 97,83 %
07.02.2019 22:36 6,9 C 6,1 C 5,6 C 84 % 1010,7 hPa 0,0 l/m 0 min 0 min 0 W/m 16,1 km/h (3 Bft) 100,00 %
07.02.2019 22:38 6,9 C 6,1 C 5,6 C 84 % 1010,7 hPa 0,0 l/m 0 min 0 min 0 W/m 16,1 km/h (3 Bft) 100,00 %
07.02.2019 22:40 6,9 C 6,1 C 5,6 C 84 % 1010,7 hPa 0,0 l/m 0 min 0 min 0 W/m 12,9 km/h (3 Bft) 97,87 %
07.02.2019 22:42 6,9 C 6,1 C 5,6 C 84 % 1010,8 hPa 0,0 l/m 0 min 0 min 0 W/m 12,9 km/h (3 Bft) 97,87 %
07.02.2019 22:44 6,8 C 6,1 C 5,6 C 84 % 1010,9 hPa 0,0 l/m 0 min 0 min 0 W/m 16,1 km/h (3 Bft) 100,00 %
07.02.2019 22:46 6,9 C 6,1 C 5,6 C 84 % 1011,0 hPa 0,0 l/m 0 min 0 min 0 W/m 16,1 km/h (3 Bft) 100,00 %
07.02.2019 22:48 6,8 C 6,1 C 5,6 C 84 % 1010,9 hPa 0,0 l/m 0 min 0 min 0 W/m 12,9 km/h (3 Bft) 97,87 %
07.02.2019 22:50 6,8 C 6,1 C 5,6 C 84 % 1011,0 hPa 0,0 l/m 0 min 0 min 0 W/m 16,1 km/h (3 Bft) 100,00 %
07.02.2019 22:52 6,8 C 6,1 C 5,6 C 84 % 1010,9 hPa 0,0 l/m 0 min 0 min 0 W/m 19,3 km/h (3 Bft) 100,00 %
07.02.2019 22:54 6,8 C 6,1 C 5,6 C 84 % 1010,9 hPa 0,0 l/m 0 min 0 min 0 W/m 9,7 km/h (2 Bft) 100,00 %
07.02.2019 22:56 6,8 C 6,1 C 5,6 C 84 % 1010,9 hPa 0,0 l/m 0 min 0 min 0 W/m 29,0 km/h (5 Bft) 100,00 %
07.02.2019 22:58 6,8 C 6,1 C 5,6 C 84 % 1011,0 hPa 0,0 l/m 0 min 0 min 0 W/m 19,3 km/h (3 Bft) 97,83 %
07.02.2019 23:00 6,7 C 6,1 C 5,0 C 84 % 1011,0 hPa 0,0 l/m 0 min 0 min 0 W/m 16,1 km/h (3 Bft) 97,87 %
07.02.2019 23:02 6,7 C 6,1 C 5,0 C 84 % 1011,0 hPa 0,0 l/m 0 min 0 min 0 W/m 9,7 km/h (2 Bft) 100,00 %
07.02.2019 23:04 6,7 C 6,1 C 5,0 C 84 % 1011,1 hPa 0,0 l/m 0 min 0 min 0 W/m 16,1 km/h (3 Bft) 100,00 %
07.02.2019 23:06 6,7 C 6,1 C 5,6 C 84 % 1011,1 hPa 0,0 l/m 0 min 0 min 0 W/m 12,9 km/h (3 Bft) 100,00 %
07.02.2019 23:08 6,7 C 6,1 C 5,6 C 84 % 1011,1 hPa 0,0 l/m 0 min 0 min 0 W/m 9,7 km/h (2 Bft) 95,74 %
07.02.2019 23:10 6,7 C 6,1 C 5,6 C 84 % 1011,1 hPa 0,0 l/m 0 min 0 min 0 W/m 9,7 km/h (2 Bft) 97,83 %
07.02.2019 23:12 6,7 C 6,1 C 5,6 C 85 % 1011,2 hPa 0,0 l/m 0 min 0 min 0 W/m 16,1 km/h (3 Bft) 100,00 %
07.02.2019 23:14 6,7 C 6,1 C 5,6 C 85 % 1011,2 hPa 0,0 l/m 0 min 0 min 0 W/m 19,3 km/h (3 Bft) 100,00 %
07.02.2019 23:16 6,7 C 6,1 C 5,6 C 85 % 1011,2 hPa 0,0 l/m 0 min 0 min 0 W/m 29,0 km/h (5 Bft) 97,87 %
07.02.2019 23:18 6,7 C 6,1 C 5,6 C 85 % 1011,2 hPa 0,0 l/m 0 min 0 min 0 W/m 19,3 km/h (3 Bft) 97,87 %
07.02.2019 23:20 6,7 C 6,1 C 5,6 C 85 % 1011,3 hPa 0,0 l/m 0 min 0 min 0 W/m 32,2 km/h (5 Bft) 97,87 %
07.02.2019 23:22 6,7 C 6,1 C 5,6 C 85 % 1011,2 hPa 0,0 l/m 0 min 0 min 0 W/m 29,0 km/h (5 Bft) 100,00 %
07.02.2019 23:24 6,7 C 6,1 C 5,6 C 84 % 1011,3 hPa 0,0 l/m 0 min 0 min 0 W/m 25,7 km/h (4 Bft) 93,62 %
07.02.2019 23:26 6,7 C 6,1 C 5,6 C 84 % 1011,3 hPa 0,0 l/m 0 min 0 min 0 W/m 9,7 km/h (2 Bft) 95,74 %
07.02.2019 23:28 6,7 C 6,1 C 5,6 C 84 % 1011,4 hPa 0,0 l/m 0 min 0 min 0 W/m 22,5 km/h (4 Bft) 93,62 %
07.02.2019 23:30 6,7 C 6,1 C 5,6 C 84 % 1011,4 hPa 0,0 l/m 0 min 0 min 0 W/m 25,7 km/h (4 Bft) 95,74 %
07.02.2019 23:32 6,7 C 6,1 C 5,6 C 84 % 1011,4 hPa 0,0 l/m 0 min 0 min 0 W/m 12,9 km/h (3 Bft) 95,74 %
07.02.2019 23:34 6,7 C 6,1 C 5,6 C 84 % 1011,4 hPa 0,0 l/m 0 min 0 min 0 W/m 6,4 km/h (2 Bft) 93,48 %
07.02.2019 23:36 6,7 C 6,1 C 5,6 C 84 % 1011,4 hPa 0,0 l/m 0 min 0 min 0 W/m 22,5 km/h (4 Bft) 95,74 %
07.02.2019 23:38 6,7 C 6,1 C 5,6 C 84 % 1011,4 hPa 0,0 l/m 0 min 0 min 0 W/m 16,1 km/h (3 Bft) 95,74 %
07.02.2019 23:40 6,7 C 6,1 C 5,6 C 84 % 1011,4 hPa 0,0 l/m 0 min 0 min 0 W/m 16,1 km/h (3 Bft) 95,74 %
07.02.2019 23:42 6,7 C 6,1 C 5,6 C 84 % 1011,5 hPa 0,0 l/m 0 min 0 min 0 W/m 9,7 km/h (2 Bft) 93,62 %
07.02.2019 23:44 6,7 C 6,1 C 5,6 C 84 % 1011,5 hPa 0,0 l/m 0 min 0 min 0 W/m 22,5 km/h (4 Bft) 93,62 %
07.02.2019 23:46 6,7 C 6,1 C 5,6 C 84 % 1011,5 hPa 0,0 l/m 0 min 0 min 0 W/m 16,1 km/h (3 Bft) 95,65 %
07.02.2019 23:48 6,7 C 6,1 C 5,6 C 84 % 1011,5 hPa 0,0 l/m 0 min 0 min 0 W/m 12,9 km/h (3 Bft) 95,74 %
07.02.2019 23:50 6,7 C 6,1 C 5,6 C 84 % 1011,4 hPa 0,0 l/m 0 min 0 min 0 W/m 29,0 km/h (5 Bft) 95,74 %
07.02.2019 23:52 6,7 C 6,1 C 5,6 C 84 % 1011,4 hPa 0,0 l/m 0 min 0 min 0 W/m 22,5 km/h (4 Bft) 95,74 %
07.02.2019 23:54 6,7 C 6,1 C 5,6 C 84 % 1011,5 hPa 0,0 l/m 0 min 0 min 0 W/m 12,9 km/h (3 Bft) 95,74 %
07.02.2019 23:56 6,7 C 6,1 C 5,6 C 84 % 1011,5 hPa 0,0 l/m 0 min 0 min 0 W/m 6,4 km/h (2 Bft) 93,48 %
07.02.2019 23:58 6,7 C 6,1 C 5,6 C 84 % 1011,4 hPa 0,0 l/m 0 min 0 min 0 W/m 9,7 km/h (2 Bft) 95,74 %
_ Min-Zeit 03:52 03:00 03:20 14:40 08:04 - - - - 00:02 00:02
Minimum _ 3,9 C 2,8 C 2,2 C 69 % 1006,0 hPa - - - - 3,2 km/h (1 Bft) 13,33 %
_ Max-Zeit 14:32 12:20 12:44 09:12 00:00 00:48 10:22 05:15 13:46 14:34 01:12
Maximum _ 10,5 C 13,9 C 11,7 C 97 % 1014,0 hPa 0,2 l/m 2 min 5 min 461 W/m 54,7 km/h
S-SO (7 Bft)
100,00 %
Durchschnitt _ 6,9 C 6,6 C 5,5 C 85 % 1008,6 hPa #4,0 l/m #3:54 h #6:50 h 159 W/m 21,6 km/h (4 Bft) 97,08 %
© 2019 W. Hausmann